Pos.Doss.NomPrenomTempsVit.Moy.Allure Pos. catégCatégorie Points Club
1 4417 Ayanom gudisa Fita 00:32:10 19.03 00:03:09 1Séniors 1000 DE VALOIS
2 4146 Pâques Benoit 00:32:15 18.98 00:03:010 2Séniors 999 RFCL
3 4655 Bekkali Omar 00:34:04 17.96 00:03:20 3Séniors 999 POLICE CLUBWEST COAST
4 2109 Renard Arnaud 00:34:10 17.91 00:03:21 4Séniors 998 jogging plus
5 2233 Gillet Geoffray 00:34:30 17.74 00:03:23 5Séniors 997 WACO - MJ SPORT
6 2928 Raemackers Cédric 00:35:41 17.15 00:03:30 6Séniors 996 FCHA - Jogging+
7 4072 Legros Olivier 00:35:56 17.03 00:03:31 1Vétérans 1 996 WACO
8 1888 Radelet Stephen 00:36:35 16.73 00:03:35 7Séniors 995 Mjsport / huy
9 53 Baar Grégory 00:36:42 16.68 00:03:36 8Séniors 994
10 4095 Dehin Reginald 00:37:03 16.52 00:03:38 9Séniors 994 JOG IN ATTITUDE
11 1 Tilkin Julien 00:37:25 16.36 00:03:40 10Séniors 993
12 4195 Defraine Nathan 00:37:28 16.33 00:03:40 11Séniors 992 TRTS
13 4398 Florescu Alexandre 00:37:39 16.25 00:03:41 12Séniors 992 RFCL
14 2228 Corswarem Pierre-henri 00:37:50 16.18 00:03:43 13Séniors 991 WAC
15 2644 Pierard Thibault 00:37:54 16.15 00:03:43 14Séniors 990 BATY RUNNERS
16 4077 Gillet David 00:37:55 16.14 00:03:43 2Vétérans 1 989 TRANSITION
17 4197 Servais Thomas 00:38:05 16.07 00:03:44 15Séniors 989 TRTS
18 4334 Vanhees Jean 00:38:25 15.93 00:03:46 16Séniors 988 FCHA
19 4066 Delchambre Frederic 00:38:33 15.88 00:03:47 3Vétérans 1 987 FOULEES DU PLAISIR
20 95 Menchior Bastien 00:38:41 15.82 00:03:48 17Séniors 987 SER ATHL
21 63 Michel Regis 00:38:45 15.79 00:03:48 18Séniors 986
22 4486 Vasapolli Tony 00:38:57 15.71 00:03:49 19Séniors 985 FAL
23 2107 Regnard Antoine 00:39:01 15.69 00:03:50 20Séniors 985 CS CHAMONIX MONT BLANC
24 4524 Beaudoin Xavier 00:39:13 15.61 00:03:51 21Séniors 984
25 4311 Lopez nava Didier 00:39:21 15.55 00:03:51 4Vétérans 1 983 SER ATHL
26 4154 Bonnivert Arnaud 00:39:45 15.4 00:03:54 22Séniors 982
27 1275 Frison David 00:39:49 15.37 00:03:54 5Vétérans 1 982 Frison team
28 44 Christodouleas Patrick 00:39:58 15.31 00:03:55 1Vétérans 2 981 JOG IN ATTITUDE
29 2153 Gochel Frédéric 00:40:01 15.29 00:03:55 23Séniors 980 FOULEES DU PLAISIR
30 4695 D inverno Brieuc 00:40:11 15.23 00:03:56 24Séniors 980 Neupre Triathlon
31 4180 Dewaide Antoni 00:40:15 15.2 00:03:57 6Vétérans 1 979 AD MACHINE
32 35 De hey Benjamin 00:40:19 15.18 00:03:57 1Espoirs H 978 Hautes Fagnes
33 4254 Estebez Amdke 00:40:23 15.15 00:03:58 7Vétérans 1 977
34 113 Henrottin Gaël 00:40:38 15.06 00:03:59 25Séniors 977 RDV RUN BEYNE
35 1588 Olivier Laurent 00:40:42 15.04 00:03:59 8Vétérans 1 976
36 4530 Genbarme Danny 00:40:44 15.02 00:03:60 26Séniors 975
37 4092 Neuteleers Eric 00:40:46 15.01 00:03:60 2Vétérans 2 975 TEAM SALMING
38 1318 Dominique Mathy 00:40:47 15.01 00:03:60 1Vétérans 3 974 HUY ATHLETIC CLUB
39 37 Pipeleers Kris 00:40:48 15 00:04:00 9Vétérans 1 973
40 317 Vrancken Jo 00:40:48 15 00:04:00 27Séniors 973 MJ Sport
41 4339 Scalais Jean philippe 00:40:56 14.95 00:04:01 10Vétérans 1 972 FCHA
42 1510 Berg Julien 00:40:56 14.95 00:04:01 28Séniors 971
43 4173 Davis Joel 00:40:58 14.94 00:04:01 29Séniors 970
44 115 Guissart Alain 00:41:05 14.9 00:04:02 11Vétérans 1 970
45 1764 Perin Logan 00:41:08 14.88 00:04:02 30Séniors 969 Team Marcel
46 2984 Garcia y gallego Maxime 00:41:15 14.84 00:04:03 31Séniors 968
47 2965 Beck Geoffray 00:41:18 14.82 00:04:03 12Vétérans 1 968 FOULEES DU PLAISIR
48 334 Merciadri Luca 00:41:20 14.81 00:04:03 32Séniors 967
49 390 Graindorge Eric 00:41:26 14.77 00:04:04 3Vétérans 2 966 SER ATHL
50 4268 Diederen Stephen 00:41:29 14.75 00:04:04 33Séniors 966 CAP NRB
51 4434 Ipach Pierre 00:41:29 14.75 00:04:04 4Vétérans 2 965 RFCL
52 4094 Campeggio Lucien 00:41:31 14.74 00:04:04 13Vétérans 1 964 SER ATHL
53 2203 Detrez Martine 00:41:32 14.74 00:04:04 1Ainées 1 963 RFCL
54 4835 Ben ninouir Arthur 00:41:36 14.71 00:04:05 34Séniors 963
55 4479 Launoy Colin 00:41:40 14.69 00:04:05 2Espoirs H 962
56 1272 Del forno David 00:41:53 14.61 00:04:06 35Séniors 961
57 1400 Roba François 00:41:53 14.61 00:04:06 36Séniors 961 Powers Runners
58 4451 Schmetz Michael 00:41:55 14.6 00:04:07 14Vétérans 1 960
59 376 Bollen Pascal 00:42:01 14.57 00:04:07 5Vétérans 2 959 SER ATHL
60 4288 Moirano Ronald 00:42:05 14.54 00:04:08 37Séniors 959
61 2173 Servais Johan 00:42:05 14.54 00:04:08 15Vétérans 1 958 FOULEES DU PLAISIR
62 4606 Nihant Florent 00:42:09 14.52 00:04:08 38Séniors 957 FNJC
63 4089 Lemestrez Odin 00:42:10 14.51 00:04:08 3Espoirs H 956
64 48 Halders Servais 00:42:11 14.51 00:04:08 2Vétérans 3 956 Hautes Fagnes
65 2786 Ollivier Ludovic 00:42:12 14.5 00:04:08 39Séniors 955
66 4760 Puits Loic 00:42:14 14.49 00:04:08 40Séniors 954 RFC JEHAY
67 1357 Rodrique Emmanuel 00:42:18 14.47 00:04:09 6Vétérans 2 954 P8
68 121 Lehance Pascal 00:42:21 14.45 00:04:09 16Vétérans 1 953 RFCL
69 2958 Champagne Régis 00:42:24 14.43 00:04:09 17Vétérans 1 952 LMDH
70 4181 Lange Hugues 00:42:31 14.39 00:04:10 41Séniors 951
71 2528 Martial Francois 00:42:33 14.38 00:04:10 42Séniors 951
72 1076 Simonet Denis 00:42:41 14.34 00:04:11 43Séniors 950 Saint-Louis Huy
73 249 Restiglian Pierre 00:42:42 14.33 00:04:11 44Séniors 949 JOG IN ATTITUDE
74 4119 Ienco Martin 00:42:47 14.3 00:04:12 4Espoirs H 949
75 4509 Xhrouet Alain 00:42:48 14.3 00:04:12 18Vétérans 1 948 T4F
76 4365 Heyne Olivier 00:42:52 14.28 00:04:12 45Séniors 947
77 1428 Ancion Gilles 00:42:54 14.27 00:04:12 46Séniors 947 TraKKs
78 1835 Pierre Frédéric 00:42:56 14.25 00:04:13 19Vétérans 1 946
79 3 Garbacz Lucas 00:42:57 14.25 00:04:13 5Espoirs H 945
80 1515 Pirnay Julien 00:43:00 14.23 00:04:13 6Espoirs H 944 FCHA
81 4696 D inverno Aubry 00:43:04 14.21 00:04:13 47Séniors 944 Neupre Triathlon
82 65 Balts Didier 00:43:04 14.21 00:04:13 7Vétérans 2 943
83 4116 Vanhoegaerden Thierry 00:43:08 14.19 00:04:14 48Séniors 942 RUNNIN GREZ
84 1429 Giozzet Frederic 00:43:16 14.14 00:04:15 49Séniors 942 Blackbucks
85 241 Buckinx Etienne 00:43:19 14.13 00:04:15 8Vétérans 2 941 RFCL
86 1393 Manderlier Eric 00:43:19 14.13 00:04:15 9Vétérans 2 940 CRAC - Charleroi
87 1327 Dutron Sylvain 00:43:21 14.12 00:04:15 50Séniors 940 Blackbucks
88 1077 Tecqmenne Martin 00:43:27 14.09 00:04:16 51Séniors 939 Saint-Louis Huy
89 1188 Mardaga Bertrand 00:43:28 14.08 00:04:16 52Séniors 938
90 1740 De lamotte Olivier 00:43:31 14.06 00:04:16 20Vétérans 1 937
91 4085 Gratien Justin 00:43:33 14.05 00:04:16 53Séniors 937 P8
92 4335 Christophe Celine 00:43:34 14.05 00:04:16 1Dames 936 BIKERSFORLIFE
93 4769 Schular Dimitry 00:43:38 14.03 00:04:17 54Séniors 935
94 4047 Bajoux Adrien 00:43:38 14.03 00:04:17 7Espoirs H 935
95 4024 Vankerckhoven Nicolas 00:43:39 14.02 00:04:17 55Séniors 934 P8
96 4548 Robert Nathan 00:43:40 14.02 00:04:17 56Séniors 933
97 839 Lallemand Benoît 00:43:40 14.02 00:04:17 10Vétérans 2 932 Sainte-Marie Huy
98 4742 Juvigne Martin 00:43:41 14.01 00:04:17 57Séniors 932
99 4014 Lemire Frederic 00:43:44 13.99 00:04:17 21Vétérans 1 931
100 4536 De gheus Gaetan 00:43:47 13.98 00:04:18 8Espoirs H 930
101 4525 Close Jerome 00:43:47 13.98 00:04:18 58Séniors 930
102 4179 Jasselette Francois 00:43:49 13.97 00:04:18 59Séniors 929 TRTS
103 4789 Van michel Nicolas 00:43:52 13.95 00:04:18 60Séniors 928
104 1977 Rosu Mélanie 00:43:53 13.95 00:04:18 2Dames 928 Province de Liège
105 4076 Vanvinckenroye Guillaume 00:43:54 13.94 00:04:18 61Séniors 927
106 4258 Honnay Gerald 00:43:55 13.94 00:04:18 62Séniors 926
107 4120 D alessandro Michael 00:43:58 13.92 00:04:19 63Séniors 925
108 4481 Vanglande Francois 00:43:58 13.92 00:04:19 64Séniors 925
109 4248 Culot Gregory 00:44:01 13.9 00:04:19 65Séniors 924 Herve AC
110 2973 Henry Gaetan 00:44:02 13.9 00:04:19 22Vétérans 1 923 Potiquets
111 61 Woolf Alain 00:44:03 13.89 00:04:19 11Vétérans 2 923 FCHA
112 4344 Dauby Julien 00:44:05 13.88 00:04:19 9Espoirs H 922
113 1973 Hernandez martin David osorio 00:44:05 13.88 00:04:19 23Vétérans 1 921 JCPMF WANZE
114 1657 Filsfils Maxime 00:44:07 13.87 00:04:20 66Séniors 921
115 1705 Sturam Nicolas 00:44:09 13.86 00:04:20 67Séniors 920
116 333 Barnabe Michel 00:44:11 13.85 00:04:20 12Vétérans 2 919 RDV RUN BEYNE
117 826 Collinet Antonin 00:44:16 13.83 00:04:20 68Séniors 918 Sainte-Marie Huy
118 4198 Lantin Damien 00:44:16 13.83 00:04:20 69Séniors 918
119 2995 Matheu Frédéric 00:44:16 13.83 00:04:20 24Vétérans 1 917
120 4650 Bailly Luc 00:44:21 13.8 00:04:21 13Vétérans 2 916 RFCL
121 4779 Marchand Julien 00:44:23 13.79 00:04:21 70Séniors 916
122 4204 Jost Damien 00:44:24 13.78 00:04:21 71Séniors 915
123 4065 Lucas Christophe 00:44:28 13.76 00:04:22 25Vétérans 1 914
124 4264 Behossay Benjamin 00:44:29 13.76 00:04:22 72Séniors 914
125 4100 Baumans Benoit 00:44:29 13.76 00:04:22 26Vétérans 1 913
126 4424 Delvaux Jean francois 00:44:30 13.75 00:04:22 73Séniors 912
127 1850 Clajot Stéphane 00:44:31 13.75 00:04:22 27Vétérans 1 911 FOULEES DU PLAISIR
128 2116 Bourseau Bertrand 00:44:33 13.74 00:04:22 74Séniors 911
129 4082 Mabille Georges 00:44:33 13.74 00:04:22 14Vétérans 2 910 JOG IN ATTITUDE
130 4123 Tosi Irene 00:44:33 13.74 00:04:22 3Dames 909 JOG IN ATTITUDE
131 2246 Renard Simon 00:44:34 13.73 00:04:22 10Espoirs H 909
132 4756 Speeckaert Alexandre 00:44:35 13.73 00:04:22 11Espoirs H 908
133 393 Rulence Ludovic 00:44:35 13.73 00:04:22 28Vétérans 1 907
134 2108 Olefs Antonino 00:44:36 13.72 00:04:22 75Séniors 906 JOG IN ATTITUDE
135 1583 Parent Lionel 00:44:37 13.72 00:04:22 29Vétérans 1 906 JCPMF Verlaine
136 2252 Feltrin Stephanie 00:44:38 13.71 00:04:23 4Dames 905 FOULEES DU PLAISIR
137 4591 Biat Regis 00:44:39 13.71 00:04:23 76Séniors 904 MALINOIS WAOUF
138 4438 Thiel Aurelien 00:44:47 13.67 00:04:23 77Séniors 904
139 1655 Dol Maxime 00:44:48 13.66 00:04:24 78Séniors 903
140 4250 Lennes Pierres 00:44:52 13.64 00:04:24 3Vétérans 3 902
141 685 Debande Vivien 00:44:52 13.64 00:04:24 79Séniors 902 Province de Liège
142 2273 Callea Fabrizio 00:44:52 13.64 00:04:24 30Vétérans 1 901 RT Braive
143 2783 Onano Patrizio 00:44:56 13.62 00:04:24 31Vétérans 1 900
144 1648 Van nieuwenhoven Mathieu 00:44:57 13.62 00:04:24 80Séniors 899
145 833 Franckart Auguste 00:44:58 13.61 00:04:25 12Espoirs H 899 Sainte-Marie Huy
146 851 Reinders Charles 00:45:00 13.6 00:04:25 13Espoirs H 898 Sainte-Marie Huy
147 1575 Leroy Loris 00:45:01 13.59 00:04:25 81Séniors 897
148 1181 Van renterghem Benoîte 00:45:04 13.58 00:04:25 5Dames 897 TRIATHLIEGE
149 2223 Bry Olivier 00:45:06 13.57 00:04:25 82Séniors 896 Crazy Bikers Chimay
150 2152 Graindorge Frédéric 00:45:06 13.57 00:04:25 32Vétérans 1 895
151 1780 Laboureur Pierre 00:45:06 13.57 00:04:25 14Espoirs H 895
152 1427 Gravar Gilles 00:45:07 13.56 00:04:25 15Espoirs H 894
153 4563 Bertrand Xavier 00:45:08 13.56 00:04:25 83Séniors 893
154 4336 Henrard Jean francois 00:45:09 13.55 00:04:26 84Séniors 892 BIKERSFORLIFE
155 109 Liberek David 00:45:10 13.55 00:04:26 33Vétérans 1 892 RDV RUN BEYNE
156 2937 Dirick Damien 00:45:15 13.52 00:04:26 85Séniors 891
157 2834 H mamou Redwan 00:45:17 13.51 00:04:26 86Séniors 890
158 4648 Dalne Gregoire 00:45:17 13.51 00:04:26 16Espoirs H 890
159 4274 Delree Florian 00:45:19 13.5 00:04:27 17Espoirs H 889
160 199 Fernez Patrick 00:45:19 13.5 00:04:27 34Vétérans 1 888 RDV RUN BEYNE
161 4494 Goyens Arnaud 00:45:20 13.5 00:04:27 87Séniors 887
162 4366 Colson Quentin 00:45:22 13.49 00:04:27 88Séniors 887
163 2951 Principato Benoit 00:45:23 13.49 00:04:27 89Séniors 886
164 2256 Laruelle Terry 00:45:23 13.49 00:04:27 90Séniors 885
165 4187 Detrez Damien 00:45:26 13.47 00:04:27 91Séniors 885
166 4156 Lion Pascal 00:45:26 13.47 00:04:27 35Vétérans 1 884
167 4177 Daniels Jean marc 00:45:27 13.47 00:04:27 36Vétérans 1 883 AVC BERNEAU
168 4096 Bourguignon Antoine 00:45:28 13.46 00:04:27 92Séniors 883
169 4761 Pizzinato Lorenzo 00:45:28 13.46 00:04:27 93Séniors 882 RFC JEHAY
170 1599 Auspert Matthias 00:45:29 13.46 00:04:28 94Séniors 881
171 4127 Van hove Tessino 00:45:30 13.45 00:04:28 95Séniors 880 RCS Verlaine
172 40 Canales Alberto 00:45:30 13.45 00:04:28 4Vétérans 3 880
173 4553 Meys Guillaume 00:45:31 13.45 00:04:28 96Séniors 879
174 2318 Marenne Eric 00:45:32 13.44 00:04:28 97Séniors 878
175 4265 Kersten Gontran 00:45:32 13.44 00:04:28 98Séniors 878
176 4201 Derenne Guy 00:45:33 13.44 00:04:28 99Séniors 877
177 4052 Monfort Germain 00:45:37 13.42 00:04:28 100Séniors 876
178 4394 Andre Gregory 00:45:40 13.4 00:04:29 101Séniors 876 TNT
179 1399 Quittelier Jason 00:45:47 13.37 00:04:29 102Séniors 875 running team Condroz
180 2144 Martinesse Emmanuel 00:45:48 13.36 00:04:29 103Séniors 874 FAC
181 4404 Mattiuzzi Andy 00:45:49 13.36 00:04:30 104Séniors 873
182 4521 Leclere li Lionel 00:45:50 13.35 00:04:30 105Séniors 873
183 4345 Dauby Pierre 00:45:50 13.35 00:04:30 106Séniors 872
184 1787 Pirard Colin 00:45:51 13.35 00:04:30 107Séniors 871 CESPAP
185 1817 Riffon Pierre 00:45:52 13.34 00:04:30 108Séniors 871 RHCH
186 4385 Mieszalski Romain 00:45:52 13.34 00:04:30 109Séniors 870
187 4517 Dredry Pierre 00:45:52 13.34 00:04:30 110Séniors 869 NC BOYS
188 854 Stoquart Theo 00:45:54 13.33 00:04:30 18Espoirs H 868 Sainte-Marie Huy
189 2568 Philis Lambriny 00:45:55 13.33 00:04:30 2Ainées 1 868 RFCL
190 2976 Trevison Dominique 00:45:58 13.31 00:04:30 37Vétérans 1 867 NLC
191 4233 Dawant Sebastien 00:46:03 13.29 00:04:31 111Séniors 866 CAP NRB
192 4639 Esser Gregory 00:46:06 13.28 00:04:31 112Séniors 866 FLONE
193 2337 Hock Coline 00:46:06 13.28 00:04:31 1Espoirs D 865 FCHA
194 2372 Blachère Eric 00:46:07 13.27 00:04:31 15Vétérans 2 864 FOULEES DU PLAISIR
195 2747 Vanderstichelen François 00:46:08 13.27 00:04:31 113Séniors 864
196 51 Knapen Laurent 00:46:09 13.26 00:04:31 5Vétérans 3 863 JOG IN ATTITUDE
197 4371 Grosjean Gaspard 00:46:09 13.26 00:04:31 114Séniors 862
198 1426 Deflandre Gilles 00:46:10 13.26 00:04:32 115Séniors 861
199 1167 Roulette Bastien 00:46:10 13.26 00:04:32 116Séniors 861
200 4194 Buron Jean yves 00:46:11 13.25 00:04:32 117Séniors 860
201 4256 Mouillard Stephan 00:46:12 13.25 00:04:32 118Séniors 859
202 2166 Sulon Christophe 00:46:13 13.24 00:04:32 38Vétérans 1 859 ARONA RUN
203 1846 Robinet Sarah 00:46:13 13.24 00:04:32 6Dames 858 FOULEES DU PLAISIR
204 683 Charlier Arnaud 00:46:14 13.24 00:04:32 39Vétérans 1 857 Province de Liège
205 4575 Dodet Thomas 00:46:15 13.23 00:04:32 119Séniors 857
206 4080 Kempeneers Leopold 00:46:15 13.23 00:04:32 40Vétérans 1 856
207 4607 Nihant Fabian 00:46:17 13.22 00:04:32 16Vétérans 2 855 FNJC
208 2360 Lantin Dylan 00:46:23 13.19 00:04:33 19Espoirs H 854
209 691 Driesen Olivier 00:46:25 13.18 00:04:33 41Vétérans 1 854 Province de Liège
210 2535 Pierard Guillaume 00:46:26 13.18 00:04:33 120Séniors 853 BATY RUNNERS
211 4126 Destexhe Vincent 00:46:29 13.17 00:04:33 121Séniors 852 RE Amay
212 2534 Courtois Guillaume 00:46:29 13.17 00:04:33 122Séniors 852
213 4199 Keutgen Gauthier 00:46:31 13.16 00:04:34 42Vétérans 1 851
214 2646 Thirion Jérôme 00:46:32 13.15 00:04:34 123Séniors 850
215 4826 Halin Theo 00:46:41 13.11 00:04:35 20Espoirs H 850
216 2328 Mansart Charline 00:46:45 13.09 00:04:35 ? 0 FCHA
217 4157 Delloye Quentin 00:46:50 13.07 00:04:35 124Séniors 849
218 2159 Sahak Sadam 00:46:52 13.06 00:04:36 21Espoirs H 848
219 4755 Capelle Corentin 00:46:54 13.05 00:04:36 22Espoirs H 847 JAMES
220 4282 Leruth Pierre 00:46:55 13.04 00:04:36 125Séniors 847
221 4506 Delfosse Antoine 00:46:56 13.04 00:04:36 126Séniors 846
222 2660 Vilet Quentin 00:46:57 13.04 00:04:36 127Séniors 845
223 2253 Babitz Steve 00:46:57 13.04 00:04:36 128Séniors 845
224 2145 Gregoire Eve 00:46:57 13.04 00:04:36 7Dames 844 Arona run
225 2731 Lerusse Philippe 00:46:58 13.03 00:04:36 17Vétérans 2 843
226 4737 Kabanda Noah 00:46:59 13.03 00:04:36 ? 0
227 4667 Meunier Vincent 00:47:01 13.02 00:04:37 129Séniors 842
228 4797 Lamproye David 00:47:02 13.01 00:04:37 130Séniors 842
229 4222 Gaudisseur Lionel 00:47:04 13 00:04:37 131Séniors 841 RT BRAIVES
230 4538 Wasson Kevin 00:47:05 13 00:04:37 ? 0
231 2263 Vandevoorde Valentin 00:47:07 12.99 00:04:37 132Séniors 840
232 4666 Autunno Antoine 00:47:08 12.98 00:04:37 133Séniors 840
233 4751 Vanhaeren Thibaut 00:47:09 12.98 00:04:37 134Séniors 839 MF PEZOJACK
234 4445 Loneux Marc 00:47:12 12.97 00:04:38 43Vétérans 1 838
235 4107 Bertrand Jonathan 00:47:14 12.96 00:04:38 135Séniors 838
236 4649 Hougardy Bastien 00:47:16 12.95 00:04:38 136Séniors 837
237 1975 Zientarski Christian 00:47:17 12.94 00:04:38 44Vétérans 1 836
238 4183 Lambion Loic 00:47:20 12.93 00:04:38 137Séniors 835
239 1807 Radelet Alain 00:47:21 12.93 00:04:39 138Séniors 835
240 64 Damblon Patrick 00:47:22 12.92 00:04:39 18Vétérans 2 834 CHALL AVENIR
241 1285 Dayez François 00:47:24 12.91 00:04:39 139Séniors 833
242 1263 Plancq Cyril 00:47:24 12.91 00:04:39 140Séniors 833
243 1201 Delva Romain 00:47:26 12.9 00:04:39 141Séniors 832
244 4758 Gheury Philippe 00:47:28 12.89 00:04:39 45Vétérans 1 831 SER ATHL
245 329 Kallipolitis Georges 00:47:29 12.89 00:04:39 46Vétérans 1 831 RDV RUN BEYNE
246 4659 Amormino Erico 00:47:29 12.89 00:04:39 47Vétérans 1 830 TRI TRA RAID
247 4698 Genart Florian 00:47:30 12.88 00:04:39 142Séniors 829
248 4105 Bertrand Gregory 00:47:31 12.88 00:04:40 143Séniors 828
249 4740 Speeckaert Nicolas 00:47:35 12.86 00:04:40 144Séniors 828
250 4446 4446 N.n. 00:47:36 12.86 00:04:40 ? 0
251 4697 Delloye Eric 00:47:37 12.85 00:04:40 145Séniors 827
252 1493 Klauer Jonathan 00:47:39 12.84 00:04:40 146Séniors 826 Powers Runners
253 1175 Bodson Benjamin 00:47:39 12.84 00:04:40 147Séniors 826
254 1056 Bour Jean-paul 00:47:41 12.83 00:04:40 19Vétérans 2 825 Saint-Louis Huy
255 85 Lessain Eric 00:47:44 12.82 00:04:41 20Vétérans 2 824
256 1658 Limbrée Maxime 00:47:45 12.82 00:04:41 148Séniors 823
257 4104 Ficetto Facu 00:47:45 12.82 00:04:41 23Espoirs H 823 AU BUCK
258 4097 Heine Laurent 00:47:46 12.81 00:04:41 48Vétérans 1 822 AU BUCK
259 4777 Adam Pascal 00:47:50 12.79 00:04:41 21Vétérans 2 821 OTC
260 4593 Colette Daniel 00:47:50 12.79 00:04:41 22Vétérans 2 821 TEAM EKOI
261 1497 Dessoy Thomas 00:47:57 12.76 00:04:42 49Vétérans 1 820
262 2095 Wilmotte Alexandre 00:47:59 12.75 00:04:42 50Vétérans 1 819
263 2331 Comijn Charles 00:48:00 12.75 00:04:42 149Séniors 819
264 2174 Lafosse Jonathan 00:48:01 12.75 00:04:42 150Séniors 818 HUY ATHLETIC CLUB
265 2956 Detaille David 00:48:03 12.74 00:04:43 151Séniors 817
266 4741 Florin Guillaume 00:48:03 12.74 00:04:43 152Séniors 816
267 4750 Beguin Elliot 00:48:03 12.74 00:04:43 153Séniors 816 MF PEZOJACK
268 4184 Lescrenier Geoffrey 00:48:04 12.73 00:04:43 154Séniors 815
269 2833 Chauvin Nicolas 00:48:06 12.72 00:04:43 51Vétérans 1 814
270 1340 Binje Valérie 00:48:09 12.71 00:04:43 3Ainées 1 814
271 677 Bongard Geoffrey 00:48:09 12.71 00:04:43 155Séniors 813 Province de Liège
272 4556 Capelle Arthur 00:48:10 12.71 00:04:43 156Séniors 812
273 4452 4452 N.n. 00:48:11 12.7 00:04:43 ? 0
274 1081 Werich Pierre 00:48:13 12.69 00:04:44 52Vétérans 1 812 Saint-Louis Huy
275 4083 Baudoin Gauthier 00:48:14 12.69 00:04:44 157Séniors 811
276 4602 Spadaro Raphael 00:48:15 12.68 00:04:44 158Séniors 810
277 2245 Simkay Sébastien 00:48:15 12.68 00:04:44 159Séniors 809
278 4381 Boticelli Teo 00:48:16 12.68 00:04:44 160Séniors 809
279 2320 Gemine Sylvain 00:48:16 12.68 00:04:44 24Espoirs H 808
280 4112 Thirion Raymond 00:48:16 12.68 00:04:44 23Vétérans 2 807 TC BRAIVES
281 2272 Bertrand Cédric 00:48:16 12.68 00:04:44 161Séniors 807
282 4754 Jacquet Samuel 00:48:16 12.68 00:04:44 162Séniors 806
283 2838 Milan Daniele 00:48:16 12.68 00:04:44 53Vétérans 1 805 CAP NRB
284 4286 Boxus Nathan 00:48:17 12.68 00:04:44 163Séniors 805
285 4292 Coumont Lorys 00:48:17 12.68 00:04:44 ? 0
286 4508 Fadista Rafael 00:48:17 12.68 00:04:44 54Vétérans 1 804
287 1832 Ryckaert Charles 00:48:18 12.67 00:04:44 164Séniors 803
288 4613 Camps Nathaniel 00:48:18 12.67 00:04:44 165Séniors 802 JOG HERMETHON
289 4319 Durviaux Mathieu 00:48:21 12.66 00:04:44 166Séniors 802
290 4364 Louis Frederic 00:48:22 12.65 00:04:45 55Vétérans 1 801
291 1284 Gillet Davy 00:48:23 12.65 00:04:45 167Séniors 800
292 4752 Spinosa Antony 00:48:23 12.65 00:04:45 168Séniors 800
293 2092 Lagrange Axel 00:48:23 12.65 00:04:45 25Espoirs H 799 ABBAYE DE FLONE
294 555 Mieszala Phillipe 00:48:23 12.65 00:04:45 56Vétérans 1 798 CILE
295 4719 Mertz Anthony 00:48:24 12.64 00:04:45 169Séniors 797
296 1687 D antuono Michele 00:48:25 12.64 00:04:45 57Vétérans 1 797 Habay Runners Club
297 557 Pouliart Michaël 00:48:27 12.63 00:04:45 58Vétérans 1 796 CILE
298 1606 Grignard Martin 00:48:28 12.63 00:04:45 170Séniors 795
299 2090 Grimont Pierre 00:48:29 12.62 00:04:45 171Séniors 795 ABBAYE DE FLONE
300 4153 Raes Guy 00:48:29 12.62 00:04:45 6Vétérans 3 794
301 284 Blaise Pierre 00:48:30 12.62 00:04:45 172Séniors 793
302 4192 Jacquemin Benoit 00:48:33 12.61 00:04:46 59Vétérans 1 793 SER ATHL
303 2836 Malengreaux Benja-thib-math 00:48:33 12.61 00:04:46 173Séniors 792 FAT TEAM
304 4671 Ober Vincent 00:48:33 12.61 00:04:46 174Séniors 791 PONT A CELLES
305 4277 Vanvinckenroye Pauline 00:48:33 12.61 00:04:46 24Vétérans 2 790
306 1454 Havart Xavier 00:48:34 12.6 00:04:46 60Vétérans 1 790 JOG IN ATTITUDE
307 4257 Lenders Benoit 00:48:35 12.6 00:04:46 175Séniors 789
308 1138 Delvaux Antoine 00:48:36 12.59 00:04:46 176Séniors 788
309 2297 Schmitt Alexandre 00:48:37 12.59 00:04:46 177Séniors 788
310 4753 Jacquet Thomas 00:48:38 12.58 00:04:46 178Séniors 787
311 1852 De giorgi Sébastien 00:48:39 12.58 00:04:46 179Séniors 786
312 4744 Stassen Renaud 00:48:39 12.58 00:04:46 180Séniors 786
313 4071 De pasqua Pierre 00:48:40 12.58 00:04:46 181Séniors 785
314 4084 Gratien Joffrey 00:48:40 12.58 00:04:46 182Séniors 784
315 4678 Labaye Dorothe 00:48:43 12.56 00:04:47 183Séniors 783 JOG IN ATTITUDE
316 386 Nicassio Vanessa 00:48:43 12.56 00:04:47 8Dames 783 JOG IN ATTITUDE
317 4317 Nederlants Julien 00:48:45 12.55 00:04:47 184Séniors 782
318 4825 Halin Megane 00:48:45 12.55 00:04:47 9Dames 781
319 836 Godefroid Mélanie 00:48:46 12.55 00:04:47 10Dames 781 Sainte-Marie Huy
320 309 Martin Eric 00:48:47 12.55 00:04:47 25Vétérans 2 780
321 4673 Dujeux Tristan 00:48:49 12.54 00:04:47 185Séniors 779
322 4480 Quodbach Yan 00:48:51 12.53 00:04:47 26Espoirs H 778
323 315 Roufosse Geoffrey 00:48:51 12.53 00:04:47 26Vétérans 2 778 RDV RUN BEYNE
324 4551 Mantvlet Romain 00:48:52 12.52 00:04:47 ? 0
325 1916 Loriaux Thomas 00:48:52 12.52 00:04:47 186Séniors 777
326 2139 Dessart Francois 00:48:55 12.51 00:04:48 187Séniors 776 BoyardTEAM
327 1487 Buys Jean-pierre 00:48:56 12.51 00:04:48 27Vétérans 2 776
328 2985 De kemmeter Jean-françois 00:49:00 12.49 00:04:48 27Espoirs H 775
329 382 Urbani Jean marc 00:49:02 12.48 00:04:48 61Vétérans 1 774 SER ATHL
330 4121 Ronvaux Martin 00:49:03 12.48 00:04:49 188Séniors 774
331 392 Lopez nava Pauline 00:49:03 12.48 00:04:49 2Espoirs D 773 SER ATHL
332 2941 Tihon Jerry 00:49:05 12.47 00:04:49 ? 0
333 2591 Wanzoul Mathieu 00:49:05 12.47 00:04:49 189Séniors 772 JCPMF Verlaine
334 4088 Tadino Frederic 00:49:06 12.46 00:04:49 62Vétérans 1 771
335 4189 Bodson Arnaud 00:49:09 12.45 00:04:49 28Espoirs H 771
336 2255 Swartenbrouckx Laurent 00:49:09 12.45 00:04:49 190Séniors 770
337 4280 Michel Olivier 00:49:10 12.45 00:04:49 63Vétérans 1 769
338 2768 Reuchamps Guillaume 00:49:11 12.44 00:04:49 191Séniors 769
339 4057 Valdes Fabian 00:49:11 12.44 00:04:49 64Vétérans 1 768
340 4611 Sevrin Fabrice 00:49:12 12.44 00:04:49 65Vétérans 1 767 RUNNING ELRNELMONT
341 4537 Wasson Corentin 00:49:12 12.44 00:04:49 ? 0
342 2784 Renard Childéric 00:49:12 12.44 00:04:49 192Séniors 767
343 4378 Comito Michael 00:49:13 12.43 00:04:50 193Séniors 766 US Liège
344 2989 Dubois Pierre-yves 00:49:15 12.43 00:04:50 194Séniors 765
345 2767 Lebrun Damien 00:49:16 12.42 00:04:50 195Séniors 764
346 2155 Froidbise Jean-luc 00:49:19 12.41 00:04:50 28Vétérans 2 764 FOULEES DU PLAISIR
347 2217 Baron Nicolas 00:49:20 12.41 00:04:50 196Séniors 763
348 4228 Laurent David 00:49:21 12.4 00:04:50 197Séniors 762
349 2503 Nelis Raphaël 00:49:23 12.39 00:04:50 198Séniors 762
350 4601 Woit Jean crhistophe 00:49:29 12.37 00:04:51 66Vétérans 1 761 VICO MARCHIN
351 1514 Fumal Julien 00:49:30 12.36 00:04:51 199Séniors 760
352 4328 Askew Stefan 00:49:32 12.36 00:04:51 200Séniors 759
353 4687 Lissoir Simon 00:49:33 12.35 00:04:51 201Séniors 759 BATY RUNNERS
354 4407 Jacques Laurent 00:49:37 12.33 00:04:52 202Séniors 758
355 1727 Richel Nicolas 00:49:38 12.33 00:04:52 203Séniors 757 Ecole communale de Ben-Ahin
356 4408 Pepin Cedric 00:49:38 12.33 00:04:52 204Séniors 757
357 1297 Delhalle Julien 00:49:39 12.33 00:04:52 205Séniors 756
358 1495 Van diepen Jordan 00:49:39 12.33 00:04:52 29Espoirs H 755
359 1859 Bouvry Sébastien 00:49:40 12.32 00:04:52 206Séniors 755
360 1853 Demain Sébastien 00:49:40 12.32 00:04:52 207Séniors 754
361 103 Manfé Dimitri 00:49:41 12.32 00:04:52 208Séniors 753
362 1494 Lacriola Jonathan 00:49:43 12.31 00:04:52 209Séniors 752
363 4200 Lambert Julien 00:49:46 12.3 00:04:53 210Séniors 752 DURBUY RUN TEAM
364 4626 Diet Fabrice 00:49:46 12.3 00:04:53 211Séniors 751 JOG IN ATTITUDE
365 4231 Mortele Malory 00:49:46 12.3 00:04:53 212Séniors 750
366 2835 Delhalle Axel 00:49:50 12.28 00:04:53 213Séniors 750
367 4369 Bilkay Mikail 00:49:53 12.27 00:04:53 214Séniors 749
368 4036 Mauviel Stephane 00:49:54 12.26 00:04:54 29Vétérans 2 748
369 4631 Dumont Nicolas 00:49:55 12.26 00:04:54 215Séniors 748
370 4790 Jaa Dominique 00:49:56 12.26 00:04:54 4Ainées 1 747
371 679 Breels Frédéric 00:49:57 12.25 00:04:54 216Séniors 746 Province de Liège
372 4665 Bronkart Benoit 00:49:59 12.24 00:04:54 217Séniors 745
373 1974 David Didier 00:50:00 12.24 00:04:54 30Vétérans 2 745
374 4285 S heeren Robin 00:50:00 12.24 00:04:54 218Séniors 744
375 4323 Bertrand Patrick 00:50:01 12.24 00:04:54 67Vétérans 1 743
376 4604 Mahaux Pascal 00:50:02 12.23 00:04:54 31Vétérans 2 743
377 4683 Culluren Jean marc 00:50:02 12.23 00:04:54 ? 0 SER ATHL
378 4559 Fairon Bernard 00:50:03 12.23 00:04:54 68Vétérans 1 742
379 4638 Rosmeulen Pierre 00:50:04 12.22 00:04:55 219Séniors 741
380 4403 Evraerts Christophe 00:50:05 12.22 00:04:55 69Vétérans 1 741
381 2239 Marechal Simon 00:50:08 12.21 00:04:55 220Séniors 740
382 4702 Moulin Pierre 00:50:08 12.21 00:04:55 221Séniors 739 WBO
383 4135 Vanaschen Vincent 00:50:09 12.2 00:04:55 70Vétérans 1 738 SER ATHL
384 4102 Strypstein Nathan 00:50:09 12.2 00:04:55 222Séniors 738
385 2630 Roberfroid Olivier 00:50:12 12.19 00:04:55 71Vétérans 1 737 ARCH
386 1308 Marchal Valentin 00:50:13 12.19 00:04:55 223Séniors 736
387 4188 Lahaye Amaury 00:50:14 12.18 00:04:55 30Espoirs H 736
388 2113 Beaulieu Mélisande 00:50:15 12.18 00:04:56 11Dames 735
389 2531 Reinders Georges 00:50:16 12.18 00:04:56 7Vétérans 3 734
390 4155 Baguette Elodie 00:50:16 12.18 00:04:56 12Dames 733
391 4405 Cnocquart Sebastienn 00:50:17 12.17 00:04:56 72Vétérans 1 733
392 59 Hilderson Luc 00:50:17 12.17 00:04:56 8Vétérans 3 732
393 1856 Lanssens Sebastien 00:50:18 12.17 00:04:56 224Séniors 731
394 4670 Bontempi Jeremie 00:50:18 12.17 00:04:56 225Séniors 731
395 1444 Andrianne Guillaume 00:50:18 12.17 00:04:56 226Séniors 730
396 2227 Seldeslachts Pauline 00:50:18 12.17 00:04:56 13Dames 729 food2run
397 1728 Nicolas Quentin 00:50:19 12.16 00:04:56 227Séniors 729
398 2719 Courtois Florian 00:50:19 12.16 00:04:56 31Espoirs H 728
399 4629 Becco Sebastien 00:50:20 12.16 00:04:56 228Séniors 727
400 4270 Walch Nicolas 00:50:20 12.16 00:04:56 229Séniors 726
401 4549 Derwael Alain 00:50:21 12.15 00:04:56 73Vétérans 1 726
402 4273 Delree Geoffrey 00:50:21 12.15 00:04:56 74Vétérans 1 725
403 4635 Piette Rodrigue 00:50:22 12.15 00:04:56 230Séniors 724
404 4660 Brahy Valentin 00:50:22 12.15 00:04:56 231Séniors 724
405 4373 Counson Maxime 00:50:23 12.15 00:04:56 232Séniors 723
406 1145 Deloyer Arnaud 00:50:29 12.12 00:04:57 233Séniors 722 NGC Solutions
407 4743 Godin Michael 00:50:29 12.12 00:04:57 234Séniors 722
408 4238 Jennen Patrick 00:50:30 12.12 00:04:57 32Vétérans 2 721
409 4235 Albessart Guillaume 00:50:32 12.11 00:04:57 235Séniors 720
410 2791 De moor Martin 00:50:37 12.09 00:04:58 236Séniors 719
411 4552 Danis Mael 00:50:37 12.09 00:04:58 ? 0
412 1259 Orban Colinne 00:50:38 12.09 00:04:58 14Dames 719
413 4122 Nossaint Philippe 00:50:39 12.08 00:04:58 33Vétérans 2 718 OCAN
414 1093 Piraux Adelin 00:50:40 12.08 00:04:58 237Séniors 717
415 1177 Renard Benjamin 00:50:41 12.07 00:04:58 238Séniors 717
416 4700 Renkens Nathan 00:50:41 12.07 00:04:58 32Espoirs H 716
417 1675 Robinet Michel 00:50:41 12.07 00:04:58 34Vétérans 2 715 FOULEES DU PLAISIR
418 4465 Van malderen Geoffrey 00:50:42 12.07 00:04:58 239Séniors 714 CASTORS MODAVE
419 1316 Dierickx Simon 00:50:44 12.06 00:04:58 240Séniors 714
420 1298 Mommen Issam 00:50:44 12.06 00:04:58 ? 0
421 4118 Ienco Bruno 00:50:44 12.06 00:04:58 35Vétérans 2 713
422 70 Darcis Joel 00:50:45 12.06 00:04:59 241Séniors 712 RDV RUN BEYNE
423 4748 Verlaine Romain 00:50:45 12.06 00:04:59 242Séniors 712 MF PEZOJACK
424 1446 Herben Guillaume 00:50:47 12.05 00:04:59 243Séniors 711
425 4834 Frison Samuel 00:50:47 12.05 00:04:59 75Vétérans 1 710
426 711 Matagne Sophie 00:50:48 12.05 00:04:59 5Ainées 1 710 Province de Liège
427 1387 Dubois Fabrice 00:50:48 12.05 00:04:59 244Séniors 709
428 26 Herzet Claude 00:50:49 12.04 00:04:59 9Vétérans 3 708
429 4101 Veys Gregory 00:50:50 12.04 00:04:59 245Séniors 707
430 2840 Miezal Marc 00:50:52 12.03 00:04:59 76Vétérans 1 707 CAP NRB
431 2795 Van gorp Maxime 00:50:54 12.02 00:04:59 246Séniors 706 FSC
432 4315 Laprele Michel 00:50:57 12.01 00:04:60 36Vétérans 2 705
433 2140 Detine Patrick 00:51:01 12 00:05:00 77Vétérans 1 705
434 4739 Bernard Simon 00:51:02 11.99 00:05:00 247Séniors 704
435 2617 François Pol 00:51:05 11.98 00:05:00 248Séniors 703
436 331 Luymoeyen Thibault 00:51:07 11.97 00:05:01 249Séniors 703
437 4306 Delchambre Quentin 00:51:07 11.97 00:05:01 33Espoirs H 702
438 2554 Gavage Julien 00:51:09 11.96 00:05:01 250Séniors 701
439 2697 Bauwens Eric 00:51:11 11.96 00:05:01 37Vétérans 2 700
440 669 Banterla Julien 00:51:12 11.95 00:05:01 251Séniors 700 Province de Liège
441 1885 Riga Stéphane 00:51:13 11.95 00:05:01 38Vétérans 2 699 FOULEES DU PLAISIR
442 2749 Laurent François 00:51:13 11.95 00:05:01 252Séniors 698 JCPMF Modave
443 709 Linsmeau Frédéric 00:51:14 11.95 00:05:01 78Vétérans 1 698 Province de Liège
444 4073 Paye Maxime 00:51:14 11.95 00:05:01 253Séniors 697
445 4725 Borlon Alexandre 00:51:15 11.94 00:05:01 254Séniors 696 OCAN
446 1448 Guilmain John 00:51:16 11.94 00:05:02 79Vétérans 1 695 JCPMF 10+
447 4260 Geubelle Pierre 00:51:16 11.94 00:05:02 255Séniors 695
448 1967 Ducarme Yannick 00:51:16 11.94 00:05:02 80Vétérans 1 694 Bref, je fais du trail
449 2797 Moulet Boris 00:51:19 11.93 00:05:02 256Séniors 693
450 4774 Burton Pierre 00:51:20 11.92 00:05:02 257Séniors 693 JOG ET DRINK
451 388 Cioppa Franco 00:51:20 11.92 00:05:02 81Vétérans 1 692
452 4356 Gubin Justine 00:51:20 11.92 00:05:02 15Dames 691
453 4342 Prouveur Guillaume 00:51:20 11.92 00:05:02 82Vétérans 1 691
454 1524 Docquier Delphine 00:51:21 11.92 00:05:02 16Dames 690 Running Team Condroz
455 4384 Gatin Christophe 00:51:22 11.91 00:05:02 83Vétérans 1 689
456 4391 Baudot Christophe 00:51:23 11.91 00:05:02 84Vétérans 1 688 MEUX
457 553 Mabeyt Kevin 00:51:29 11.89 00:05:03 258Séniors 688 CILE
458 1128 Cuppens Amaury 00:51:29 11.89 00:05:03 259Séniors 687
459 1072 Marot Jean 00:51:29 11.89 00:05:03 260Séniors 686 Saint-Louis Huy
460 4435 Wattecamps Helene 00:51:29 11.89 00:05:03 17Dames 686 P8
461 4735 Gustin Thibaut 00:51:30 11.88 00:05:03 261Séniors 685
462 1918 Limbree Thomas 00:51:30 11.88 00:05:03 262Séniors 684
463 34 Dalla corte Ludovic 00:51:31 11.88 00:05:03 263Séniors 684
464 4547 Beavrang Pierre yvan 00:51:32 11.88 00:05:03 264Séniors 683
465 4636 Rosmeulen Francois 00:51:33 11.87 00:05:03 265Séniors 682
466 4653 Olivier Nathalie 00:51:33 11.87 00:05:03 1Ainées 3 681
467 4787 Beckers Thomas 00:51:33 11.87 00:05:03 266Séniors 681
468 4259 Desir Thomas 00:51:34 11.87 00:05:03 267Séniors 680
469 2129 Plumier Christophe 00:51:34 11.87 00:05:03 268Séniors 679
470 4221 Lepage Gregory 00:51:35 11.86 00:05:03 85Vétérans 1 679 LES JOBS
471 4583 Perazzolo Michael 00:51:36 11.86 00:05:04 269Séniors 678
472 2111 Collin Audrey 00:51:37 11.86 00:05:04 18Dames 677
473 4061 Alardot Jonathan 00:51:38 11.85 00:05:04 270Séniors 677 OCAN
474 4469 Verjans Sarah 00:51:38 11.85 00:05:04 19Dames 676
475 4681 Pulte Antoine 00:51:39 11.85 00:05:04 271Séniors 675 RDV RUN BEYNE
476 23 Burniat Olivier 00:51:40 11.85 00:05:04 272Séniors 674 Toujours Allure
477 1685 Jadot Julien 00:51:40 11.85 00:05:04 273Séniors 674
478 4625 Gillet Dimitri 00:51:45 11.83 00:05:04 274Séniors 673
479 1292 Delbouille Arnaud 00:51:45 11.83 00:05:04 275Séniors 672 Arona
480 2220 Matagne Nicolas 00:51:47 11.82 00:05:05 276Séniors 672
481 1058 Cornet Christophe 00:51:47 11.82 00:05:05 86Vétérans 1 671 Saint-Louis Huy
482 684 Darmont Pierre 00:51:47 11.82 00:05:05 87Vétérans 1 670 Province de Liège
483 2688 Legrand Antoine 00:51:47 11.82 00:05:05 277Séniors 669 RHCH
484 4006 Poty Maxime 00:51:48 11.81 00:05:05 278Séniors 669
485 4792 Dony Cedric 00:51:49 11.81 00:05:05 279Séniors 668
486 2839 Miezal Thomas 00:51:49 11.81 00:05:05 34Espoirs H 667
487 2085 Bellens Alexis 00:51:50 11.81 00:05:05 280Séniors 667 ABBAYE DE FLONE
488 4428 Borrey Wim 00:51:52 11.8 00:05:05 281Séniors 666
489 2980 Henrotte Jerome 00:51:52 11.8 00:05:05 282Séniors 665
490 1419 Orban Geoffrey 00:51:54 11.79 00:05:05 283Séniors 665
491 4672 Didion Olivier 00:51:55 11.79 00:05:05 88Vétérans 1 664
492 2103 Vandeweyer Anja 00:51:56 11.78 00:05:05 6Ainées 1 663 P8
493 385 Letellier Jean luc 00:51:56 11.78 00:05:05 39Vétérans 2 662
494 667 Andreou Adrien 00:51:57 11.78 00:05:06 284Séniors 662 Province de Liège
495 1440 Renault Gregory 00:51:57 11.78 00:05:06 89Vétérans 1 661 Bichette
496 4458 Mottin Damien 00:51:58 11.78 00:05:06 285Séniors 660
497 4794 Dubrunfaut Samuel 00:51:58 11.78 00:05:06 286Séniors 660
498 4015 Haumont Raphael 00:51:58 11.78 00:05:06 287Séniors 659
499 4108 Weertz Guillaume 00:51:59 11.77 00:05:06 35Espoirs H 658
500 4482 Vanolande Brieuc 00:52:02 11.76 00:05:06 288Séniors 658
501 4674 Pietri Sandra 00:52:03 11.76 00:05:06 20Dames 657
502 4487 Michel Xavier 00:52:03 11.76 00:05:06 289Séniors 656 Flemalle Athletic Club
503 845 Mattart Romain 00:52:04 11.75 00:05:06 36Espoirs H 655 Sainte-Marie Huy
504 1600 Gilles Mahaux 00:52:05 11.75 00:05:06 37Espoirs H 655 Boubiet team
505 1771 Mahaux Philippe 00:52:06 11.75 00:05:06 90Vétérans 1 654 Boubiet team
506 1672 Lambinon Michaël 00:52:06 11.75 00:05:06 290Séniors 653
507 1283 Smits David 00:52:07 11.74 00:05:07 91Vétérans 1 653
508 1071 Machiels Pierre 00:52:08 11.74 00:05:07 92Vétérans 1 652 Saint-Louis Huy
509 1881 Spruyt Christophe 00:52:09 11.74 00:05:07 93Vétérans 1 651
510 2146 Delcommune Karl 00:52:09 11.74 00:05:07 40Vétérans 2 650 HUY ATHLETIC CLUB
511 4070 Guilmain Jerome 00:52:09 11.74 00:05:07 94Vétérans 1 650
512 4217 Renard Benoit 00:52:11 11.73 00:05:07 41Vétérans 2 649
513 4765 Brantz Jean yves 00:52:12 11.72 00:05:07 95Vétérans 1 648
514 2296 Monteforte Alexandre 00:52:12 11.72 00:05:07 291Séniors 648
515 1596 Lux Meriadec 00:52:13 11.72 00:05:07 292Séniors 647
516 2183 Lecrenier Ludwig 00:52:14 11.72 00:05:07 38Espoirs H 646
517 1831 Lilot Brice 00:52:14 11.72 00:05:07 293Séniors 646 JIMS LIEGE
518 4605 Wotron Pascal 00:52:15 11.71 00:05:07 42Vétérans 2 645
519 4518 Rasquain Bertrand 00:52:16 11.71 00:05:07 96Vétérans 1 644
520 2982 Dall ora Sergio 00:52:20 11.69 00:05:08 43Vétérans 2 643 JCPMF HUY
521 4281 Dorval Martin 00:52:20 11.69 00:05:08 294Séniors 643
522 835 Godefroid Mathilde 00:52:21 11.69 00:05:08 21Dames 642 Sainte-Marie Huy
523 2207 Freyman Maxim 00:52:21 11.69 00:05:08 295Séniors 641
524 1450 Gyen Michaël 00:52:21 11.69 00:05:08 97Vétérans 1 641 LES EOLES
525 4627 Lima Calogero 00:52:22 11.69 00:05:08 296Séniors 640
526 4109 Thirion Camille 00:52:23 11.68 00:05:08 22Dames 639 LES FREL0NS
527 1172 Bawin Benoit 00:52:25 11.68 00:05:08 98Vétérans 1 639 JCPMF WANZE
528 2370 Evrard Thomas 00:52:25 11.68 00:05:08 297Séniors 638
529 4272 Brodeala Florin 00:52:27 11.67 00:05:09 99Vétérans 1 637
530 4229 Bruggeman Pieter jan 00:52:27 11.67 00:05:09 298Séniors 636 ZATOPEK NAMUR
531 4468 Pasquiers Jerome 00:52:27 11.67 00:05:09 100Vétérans 1 636
532 4609 Stalport Carole 00:52:28 11.66 00:05:09 23Dames 635 LES FRELONS
533 1075 Robert Yves 00:52:28 11.66 00:05:09 101Vétérans 1 634 Saint-Louis Huy
534 1920 Thonon Julien 00:52:29 11.66 00:05:09 299Séniors 634
535 853 Steuckers Nicolas 00:52:30 11.66 00:05:09 39Espoirs H 633 Sainte-Marie Huy
536 1871 Soir Antoine 00:52:31 11.65 00:05:09 300Séniors 632
537 4140 Clement Corentin 00:52:32 11.65 00:05:09 40Espoirs H 632
538 1392 Dorcimont Chantal 00:52:34 11.64 00:05:09 1Ainées 2 631 CRAC - Charleroi
539 4207 Dormal Stephane 00:52:35 11.64 00:05:09 102Vétérans 1 630 JCPMF HERON
540 1189 Bertrand Kévin 00:52:35 11.64 00:05:09 301Séniors 629
541 1423 Giaux Nadège 00:52:37 11.63 00:05:010 24Dames 629 Zatopek Namur
542 4831 Vandereag Pierre yves 00:52:37 11.63 00:05:010 302Séniors 628
543 4390 Badoux Florian 00:52:37 11.63 00:05:010 303Séniors 627 TriYUB
544 693 Firre Christian 00:52:39 11.62 00:05:010 103Vétérans 1 627 Province de Liège
545 4721 Dumont Dirk 00:52:40 11.62 00:05:010 44Vétérans 2 626
546 4654 Beukim Samuel 00:52:44 11.61 00:05:10 41Espoirs H 625
547 2613 Masset Philippe 00:52:48 11.59 00:05:11 104Vétérans 1 624
548 1445 Charlier Guillaume 00:52:48 11.59 00:05:11 304Séniors 624 OCAN
549 4308 Charlot Loic 00:52:49 11.59 00:05:11 305Séniors 623
550 4476 Heiderscheidt Bernard 00:52:50 11.58 00:05:11 105Vétérans 1 622
551 4226 Faniel Jean marie 00:52:50 11.58 00:05:11 45Vétérans 2 622
552 2215 Bouveroux Nathan 00:52:51 11.58 00:05:11 306Séniors 621
553 546 Bultot Cédric 00:52:52 11.58 00:05:11 307Séniors 620 CILE
554 1900 Sul a nawej Moise 00:52:52 11.58 00:05:11 308Séniors 620 Moïse
555 2259 Thonet Yannick 00:52:52 11.58 00:05:11 309Séniors 619
556 4729 Nottebaert Samuel 00:52:54 11.57 00:05:11 106Vétérans 1 618
557 4049 Wouters Pierre 00:52:57 11.56 00:05:11 107Vétérans 1 617
558 4246 Baeke Ludovic 00:52:59 11.55 00:05:12 310Séniors 617
559 4782 Roppe Bernard 00:53:01 11.54 00:05:12 42Espoirs H 616
560 4514 Charles Renaud 00:53:01 11.54 00:05:12 311Séniors 615
561 4242 Bodet Colin 00:53:01 11.54 00:05:12 312Séniors 615
562 4017 Lievens Pierre yve 00:53:02 11.54 00:05:12 313Séniors 614
563 4682 Burlet Brian 00:53:04 11.53 00:05:12 314Séniors 613
564 1694 Frere Sebastien 00:53:05 11.53 00:05:12 315Séniors 613
565 2237 Rousseau David 00:53:05 11.53 00:05:12 108Vétérans 1 612 Axa team
566 1084 Martin Kevin 00:53:06 11.53 00:05:12 316Séniors 611
567 2631 Schifano Roger 00:53:06 11.53 00:05:12 109Vétérans 1 610
568 308 Sevrin Laetitia 00:53:06 11.53 00:05:12 25Dames 610 RDV RUN BEYNE
569 2776 Barbençon Jérémy 00:53:08 11.52 00:05:13 317Séniors 609
570 2645 Thibaut Sophie 00:53:08 11.52 00:05:13 26Dames 608
571 4461 Mottin Benoit 00:53:08 11.52 00:05:13 10Vétérans 3 608
572 4341 Charles Manu 00:53:10 11.51 00:05:13 110Vétérans 1 607
573 2138 Debouny Fabian 00:53:11 11.51 00:05:13 318Séniors 606 FOULEES DU PLAISIR
574 4148 Lienard Alain 00:53:11 11.51 00:05:13 319Séniors 605
575 1397 Colon Florian 00:53:11 11.51 00:05:13 320Séniors 605 Pour le fun
576 4249 Rappe Manu 00:53:16 11.49 00:05:13 46Vétérans 2 604
577 4441 Delcomminette Arthur 00:53:18 11.48 00:05:14 43Espoirs H 603
578 4608 Jadot Olivier 00:53:19 11.48 00:05:14 111Vétérans 1 603 FOULEES DU PLAISIR
579 1251 Collard Christophe 00:53:21 11.47 00:05:14 112Vétérans 1 602 Je cours pour ma forme Amay
580 4043 Sortino Christopher 00:53:23 11.46 00:05:14 321Séniors 601 JOGGING ACADEMY
581 4545 Deville de goyet Tanguy 00:53:23 11.46 00:05:14 322Séniors 601
582 4353 Reginster Mathieu 00:53:24 11.46 00:05:14 323Séniors 600
583 2935 Hay Arnaud 00:53:26 11.45 00:05:14 324Séniors 599
584 2161 Hauteclair Marc 00:53:30 11.44 00:05:15 113Vétérans 1 598
585 2162 Malfroid Sonia 00:53:30 11.44 00:05:15 7Ainées 1 598
586 378 Battistini Luciano 00:53:31 11.44 00:05:15 11Vétérans 3 597
587 2975 Sam Christian 00:53:32 11.43 00:05:15 114Vétérans 1 596 NLC
588 1221 Vranken Cédric 00:53:32 11.43 00:05:15 325Séniors 596
589 4227 Lambion Pierre 00:53:32 11.43 00:05:15 326Séniors 595
590 2222 Bertrand Olivier 00:53:32 11.43 00:05:15 327Séniors 594
591 2746 Airoldi Francis 00:53:34 11.43 00:05:15 47Vétérans 2 594
592 2557 Verlaine Jordan 00:53:34 11.43 00:05:15 328Séniors 593
593 1676 Lefèvre Amaury 00:53:34 11.43 00:05:15 329Séniors 592
594 4023 Kinet Gary 00:53:34 11.43 00:05:15 330Séniors 591 LES JOBS
595 2189 Louis Pierre 00:53:35 11.42 00:05:15 115Vétérans 1 591 LES JOBS
596 4783 Goosse Guillaume 00:53:35 11.42 00:05:15 331Séniors 590 WBO
597 4511 Martin perez Miguel 00:53:37 11.41 00:05:15 116Vétérans 1 589
598 2510 Serial Joggeur 00:53:43 11.39 00:05:16 117Vétérans 1 589
599 2278 Wilmet Nicolas 00:53:44 11.39 00:05:16 332Séniors 588
600 4550 Deprez Geraud 00:53:46 11.38 00:05:16 118Vétérans 1 587
601 1552 Sauvage Laura 00:53:47 11.38 00:05:16 27Dames 586 Arona fitness
602 1388 Hicter Raphael 00:53:47 11.38 00:05:16 333Séniors 586
603 4305 Marteau Valentin 00:53:50 11.37 00:05:17 334Séniors 585
604 1860 Gardier Sébastien 00:53:51 11.36 00:05:17 335Séniors 584
605 4395 Van bever Henri 00:53:51 11.36 00:05:17 119Vétérans 1 584
606 1281 Louis David 00:53:52 11.36 00:05:17 336Séniors 583 HC Amay Handball
607 4236 Englebert Youri 00:53:53 11.36 00:05:17 ? 0
608 4615 Galiotto Geo 00:53:53 11.36 00:05:17 337Séniors 582 QUINTUOR DE SLINS
609 4420 Kemei Noah 00:53:54 11.35 00:05:17 338Séniors 582 DE VALOIS
610 4418 Chebolei Daniel 00:53:54 11.35 00:05:17 339Séniors 581 DE VALOIS
611 4628 Tomballe Francis 00:53:57 11.34 00:05:17 48Vétérans 2 580
612 4360 Eugene Xavier 00:53:58 11.34 00:05:17 44Espoirs H 579
613 1463 Mayele Hudo 00:53:58 11.34 00:05:17 340Séniors 579
614 1647 Hamaite Mathieu 00:53:59 11.34 00:05:18 341Séniors 578
615 696 Gomez Julien 00:53:59 11.34 00:05:18 342Séniors 577 Province de Liège
616 1382 Frébel Fabrice 00:54:00 11.33 00:05:18 120Vétérans 1 577
617 4397 Delince Eric 00:54:00 11.33 00:05:18 49Vétérans 2 576
618 1159 Stiepen Axelle 00:54:02 11.33 00:05:18 28Dames 575
619 4747 Meus Michel 00:54:04 11.32 00:05:18 343Séniors 575
620 4561 Tratsaert Gregory 00:54:04 11.32 00:05:18 344Séniors 574
621 4502 Creve cour Simon 00:54:04 11.32 00:05:18 345Séniors 573
622 4016 Baucamp Sebastien 00:54:05 11.32 00:05:18 346Séniors 572
623 4558 Baum Cyrille 00:54:07 11.31 00:05:18 347Séniors 572
624 2577 Palumbo Giuseppe 00:54:12 11.29 00:05:19 121Vétérans 1 571 RFCL
625 4733 Natalis Fanny 00:54:13 11.29 00:05:19 29Dames 570
626 1087 Absil Joel 00:54:13 11.29 00:05:19 122Vétérans 1 570
627 2665 Rasquain Benoît 00:54:14 11.28 00:05:19 123Vétérans 1 569 Saint-Louis Huy
628 2518 Meyer Florent 00:54:16 11.28 00:05:19 348Séniors 568
629 4522 David Guilbert 00:54:16 11.28 00:05:19 349Séniors 568 MAGPIE RUNNING HUY
630 4505 Bielawski Cyntia 00:54:19 11.27 00:05:20 30Dames 567
631 1146 Rossomme Arnaud 00:54:20 11.26 00:05:20 350Séniors 566
632 1270 Beguin David 00:54:20 11.26 00:05:20 351Séniors 565
633 2219 Lhoest Nicolas 00:54:22 11.26 00:05:20 352Séniors 565 MAGPIE RUNNING HUY
634 4350 Krusy Philippe 00:54:23 11.25 00:05:20 124Vétérans 1 564 EPO
635 2614 Philips Kevin 00:54:24 11.25 00:05:20 353Séniors 563
636 145 Marot Bernard 00:54:24 11.25 00:05:20 12Vétérans 3 563
637 4239 Soreil Adrien 00:54:25 11.25 00:05:20 354Séniors 562
638 2565 Roskam Justine 00:54:27 11.24 00:05:20 31Dames 561
639 2709 Polet Cedric 00:54:28 11.24 00:05:20 355Séniors 560
640 4318 Gaiotti Diana 00:54:29 11.23 00:05:20 2Ainées 2 560
641 4069 Christiaens Michel 00:54:29 11.23 00:05:20 13Vétérans 3 559
642 2573 Lissoir Louise 00:54:32 11.22 00:05:21 32Dames 558 BATY RUNNERS
643 4580 Lambert Eric 00:54:33 11.22 00:05:21 50Vétérans 2 558
644 4332 Ponet Cedric 00:54:35 11.21 00:05:21 356Séniors 557
645 1561 Duchesne Laurie 00:54:36 11.21 00:05:21 33Dames 556
646 4326 Deprez Maxime 00:54:37 11.21 00:05:21 357Séniors 556
647 4448 Lamatina Vincent 00:54:40 11.2 00:05:22 125Vétérans 1 555
648 714 Neuray Isabelle 00:54:44 11.18 00:05:22 8Ainées 1 554 Province de Liège
649 671 Bastin Xavier 00:54:45 11.18 00:05:22 126Vétérans 1 553 Province de Liège
650 4093 Loyens Colin 00:54:48 11.17 00:05:22 358Séniors 553
651 4776 Syne Alain 00:54:49 11.16 00:05:22 51Vétérans 2 552 BELFIUS LIEGE CENTRE
652 1385 Yans Fabrice 00:54:52 11.15 00:05:23 359Séniors 551 LES EOLES
653 692 Ferri Romain 00:54:53 11.15 00:05:23 360Séniors 551 Province de Liège
654 4689 Moray Julien 00:54:53 11.15 00:05:23 361Séniors 550
655 4382 Colle Jean-françois 00:54:54 11.15 00:05:23 362Séniors 549 RDV RUN BEYNE
656 2270 Brène Yves 00:54:56 11.14 00:05:23 127Vétérans 1 549 LES EOLES
657 4567 Beckers Pascal 00:54:57 11.14 00:05:23 128Vétérans 1 548
658 4247 Mortroux Mickael 00:54:59 11.13 00:05:23 363Séniors 547
659 4267 L hoir Kevin 00:54:59 11.13 00:05:23 364Séniors 546
660 4035 Jacquemin Kevin 00:55:00 11.13 00:05:24 365Séniors 546
661 4261 Simon Bruno 00:55:00 11.13 00:05:24 14Vétérans 3 545
662 4078 Witkowski Bastien 00:55:00 11.13 00:05:24 366Séniors 544 CARAPILS
663 2827 Witkowski Thomas 00:55:00 11.13 00:05:24 367Séniors 544
664 4447 Willems Cecile 00:55:00 11.13 00:05:24 9Ainées 1 543
665 1398 Belaire Michael 00:55:01 11.12 00:05:24 368Séniors 542
666 4620 Aubert Vincent 00:55:02 11.12 00:05:24 ? 0 JCPMF ANGLEUR
667 397 Morana Edouard 00:55:04 11.11 00:05:24 129Vétérans 1 541 SER ATHL
668 4727 Elias Kevin 00:55:04 11.11 00:05:24 369Séniors 541
669 2309 Picquereau Benjamin 00:55:04 11.11 00:05:24 370Séniors 540
670 4728 Constant Jonathan 00:55:04 11.11 00:05:24 371Séniors 539
671 4726 Roquet Ludovic 00:55:04 11.11 00:05:24 372Séniors 539
672 4343 Demonceau Suzanne 00:55:06 11.11 00:05:24 10Ainées 1 538 SER ATHL
673 2231 Oger Pierre 00:55:06 11.11 00:05:24 130Vétérans 1 537 LES EOLES
674 4828 Lesenfans Benjamin 00:55:06 11.11 00:05:24 373Séniors 537
675 2149 Straat Florine 00:55:07 11.1 00:05:24 34Dames 536 FOULEES DU PLAISIR
676 829 Dethine Olivier 00:55:07 11.1 00:05:24 131Vétérans 1 535 Sainte-Marie Huy
677 4002 Thonon Olivier 00:55:08 11.1 00:05:24 132Vétérans 1 534 FOULEES DU PLAISIR
678 4220 Bertrand Fabrice 00:55:10 11.09 00:05:25 133Vétérans 1 534 LES JOBS
679 1482 Cinquina Graziano 00:55:10 11.09 00:05:25 374Séniors 533 SER ATHL
680 1481 Abdelmouni Mohamed 00:55:10 11.09 00:05:25 375Séniors 532 SER ATHL
681 60 Peters Fabrice 00:55:10 11.09 00:05:25 134Vétérans 1 532
682 2321 Modave Loic 00:55:13 11.08 00:05:25 45Espoirs H 531
683 4214 Sreel Hubert 00:55:14 11.08 00:05:25 52Vétérans 2 530
684 4421 Williamme Brayan 00:55:15 11.08 00:05:25 46Espoirs H 530 ITCF AGRI
685 4498 Praillet Robin 00:55:15 11.08 00:05:25 376Séniors 529
686 4516 Huberland Julien 00:55:15 11.08 00:05:25 377Séniors 528
687 4497 Pirquinne Kevin 00:55:16 11.07 00:05:25 378Séniors 527 Etoile de Faimes
688 4513 Dock Johan 00:55:18 11.07 00:05:25 379Séniors 527
689 4471 Janssis Pierre 00:55:18 11.07 00:05:25 380Séniors 526
690 4212 4212 N.n. 00:55:18 11.07 00:05:25 ? 0
691 1491 Graindorge Johan 00:55:19 11.06 00:05:25 135Vétérans 1 525 LES JOBS
692 4357 Gobert Romain 00:55:21 11.06 00:05:26 47Espoirs H 525
693 2151 Laboureur François 00:55:21 11.06 00:05:26 381Séniors 524
694 1917 Feltrin Thomas 00:55:23 11.05 00:05:26 48Espoirs H 523
695 4028 Tasiaux Thierry 00:55:24 11.05 00:05:26 53Vétérans 2 523
696 4571 Adant Romain 00:55:25 11.04 00:05:26 382Séniors 522
697 4823 Lugara Pauline 00:55:25 11.04 00:05:26 35Dames 521
698 1673 De carvalho Laura 00:55:25 11.04 00:05:26 3Espoirs D 520
699 4555 Denis Nathalie 00:55:26 11.04 00:05:26 3Ainées 2 520
700 325 Hertogen Willy 00:55:26 11.04 00:05:26 15Vétérans 3 519 BJC
701 1611 Sauvage Marie-hélène 00:55:27 11.04 00:05:26 36Dames 518
702 2652 Levaque Delphine 00:55:27 11.04 00:05:26 11Ainées 1 518
703 4554 Dolci mascolo Baldassare 00:55:30 11.03 00:05:26 136Vétérans 1 517
704 1577 Lesage Olivier 00:55:30 11.03 00:05:26 383Séniors 516
705 4803 Bodeux Sarah 00:55:30 11.03 00:05:26 37Dames 515
706 79 Loës Pierre 00:55:33 11.02 00:05:27 384Séniors 515 RUN4FUN LIEGE
707 2110 Delhougne Anne-sophie 00:55:35 11.01 00:05:27 38Dames 514
708 4762 Meeurs Jordan 00:55:37 11 00:05:27 385Séniors 513
709 687 Dechamps Brian 00:55:37 11 00:05:27 386Séniors 513 Province de Liège
710 2171 Maascheling Fabrice 00:55:38 11 00:05:27 137Vétérans 1 512
711 4699 Echallaoui Hamza 00:55:38 11 00:05:27 387Séniors 511
712 4614 Burniat Laurent 00:55:39 11 00:05:27 388Séniors 511 QUINTUOR
713 4833 Dombut Cyril 00:55:39 11 00:05:27 389Séniors 510
714 335 Tran Xuanmai 00:55:39 11 00:05:27 12Ainées 1 509
715 4454 Lolli Samuel 00:55:40 10.99 00:05:27 390Séniors 508
716 4519 Fett Thomas 00:55:40 10.99 00:05:27 138Vétérans 1 508 LES FRELONS
717 4375 Biemar Denis 00:55:40 10.99 00:05:27 391Séniors 507 FOULEES DU PLAISIR
718 2333 Schutz Sebastien 00:55:40 10.99 00:05:27 392Séniors 506
719 4058 Valdes Luka 00:55:41 10.99 00:05:28 ? 0
720 1289 Dejardin Christelle 00:55:42 10.99 00:05:28 13Ainées 1 506 LES FRELONS
721 2332 Martin Pierre 00:55:42 10.99 00:05:28 393Séniors 505
722 4310 Dumont Marianne 00:55:43 10.98 00:05:28 14Ainées 1 504 SER ATHL
723 4675 Cannnarsa Mario 00:55:43 10.98 00:05:28 139Vétérans 1 504 JOG IN ATTITUDE
724 2743 Geenen Florie 00:55:44 10.98 00:05:28 39Dames 503
725 4557 Beauvois Elise 00:55:45 10.98 00:05:28 40Dames 502
726 4021 Swennen Gilbert 00:55:47 10.97 00:05:28 16Vétérans 3 501 FOULEES DU PLAISIR
727 4749 Engels Louis 00:55:52 10.95 00:05:29 394Séniors 501 MF PEZOJACK
728 672 Beckers Daniel 00:55:53 10.95 00:05:29 54Vétérans 2 500 Province de Liège
729 72 Mancini Michel 00:55:53 10.95 00:05:29 17Vétérans 3 499 SER ATHL
730 4003 Genicot Pascal 00:55:54 10.95 00:05:29 55Vétérans 2 499 FOULEES DU PLAISIR
731 1098 Degee Sophie 00:55:55 10.94 00:05:29 41Dames 498
732 4295 Lotin Romain 00:55:56 10.94 00:05:29 395Séniors 497
733 1325 Dupont Maxime 00:55:56 10.94 00:05:29 396Séniors 496
734 4644 Devalet Jean francois 00:55:57 10.94 00:05:29 397Séniors 496
735 1763 Freson Mathilde 00:55:57 10.94 00:05:29 42Dames 495
736 4290 Feret Michael 00:55:57 10.94 00:05:29 398Séniors 494 TEAM CHEVRE
737 389 Vanhove Marielle 00:56:00 10.93 00:05:29 15Ainées 1 494
738 850 Pirard Justin 00:56:01 10.93 00:05:30 ? 0 Sainte-Marie Huy
739 1240 Jodard Christian 00:56:01 10.93 00:05:30 56Vétérans 2 493
740 4243 Trillet Pierre 00:56:01 10.93 00:05:30 399Séniors 492
741 1473 Istas Romain 00:56:02 10.92 00:05:30 400Séniors 492
742 1699 Biondolillo Nicolas 00:56:06 10.91 00:05:30 401Séniors 491
743 4488 Debroeck Stephan 00:56:06 10.91 00:05:30 140Vétérans 1 490
744 4485 Motten Stephanie 00:56:07 10.91 00:05:30 43Dames 489
745 2089 Gilles Geneviève 00:56:10 10.9 00:05:30 16Ainées 1 489 ABBAYE DE FLONE
746 2091 Jurdan Eric 00:56:10 10.9 00:05:30 141Vétérans 1 488 ABBAYE DE FLONE
747 1406 Tremouroux Frédéric 00:56:11 10.89 00:05:30 142Vétérans 1 487 JCPMF HUY
748 1370 Thiry Etienne 00:56:11 10.89 00:05:30 18Vétérans 3 487
749 4738 Kabanda Sam 00:56:12 10.89 00:05:31 49Espoirs H 486 HUY BASKET
750 203 Longree Gaetan 00:56:12 10.89 00:05:31 402Séniors 485 RDV RUN BEYNE
751 4327 Musellle David 00:56:12 10.89 00:05:31 403Séniors 485 CYCLES MUSELLE
752 4244 Ruoso Michael 00:56:12 10.89 00:05:31 143Vétérans 1 484
753 2757 Jaszczuk Hugo 00:56:12 10.89 00:05:31 404Séniors 483 COLAS
754 2196 Carullo Marco 00:56:13 10.89 00:05:31 405Séniors 482
755 4478 Launoy Vincent 00:56:14 10.88 00:05:31 144Vétérans 1 482
756 1925 Torrekens Simon 00:56:17 10.87 00:05:31 406Séniors 481
757 4512 Angelicchio Frederic 00:56:20 10.86 00:05:31 407Séniors 480
758 2548 Petit Jean-luc 00:56:20 10.86 00:05:31 408Séniors 480 Running Team Condroz
759 4376 Noel Loic 00:56:21 10.86 00:05:31 409Séniors 479
760 2530 Malherbe Gaudric 00:56:22 10.86 00:05:32 410Séniors 478
761 4690 Horrion Geoffrey 00:56:23 10.85 00:05:32 411Séniors 477
762 4312 Lapierre Remy 00:56:24 10.85 00:05:32 412Séniors 477
763 841 Lemahieu Marie 00:56:28 10.84 00:05:32 44Dames 476 Sainte-Marie Huy
764 4136 Delloye Emmanuel 00:56:30 10.83 00:05:32 19Vétérans 3 475
765 2738 Tamma Lucia 00:56:32 10.83 00:05:33 17Ainées 1 475
766 538 Houthoofdt Nathalie 00:56:35 10.82 00:05:33 18Ainées 1 474 Body Attack Wanze
767 4680 Simal Marc 00:56:35 10.82 00:05:33 413Séniors 473
768 4710 Frere Vincent 00:56:37 10.81 00:05:33 145Vétérans 1 473
769 4677 Velz Benjamin 00:56:39 10.8 00:05:33 414Séniors 472 LES CARIBOU GRILLES
770 4770 Van buggenhout Francois 00:56:39 10.8 00:05:33 415Séniors 471
771 4691 Chamberland Adrien 00:56:40 10.8 00:05:33 416Séniors 470
772 2796 Goffin Maxim 00:56:40 10.8 00:05:33 417Séniors 470
773 4464 Beck Jean pol 00:56:41 10.8 00:05:33 20Vétérans 3 469
774 4196 Charlier Philippe 00:56:43 10.79 00:05:34 57Vétérans 2 468 MUSICAL BOX
775 545 Boulet Xavier 00:56:46 10.78 00:05:34 418Séniors 468 CILE
776 4245 Dequinze Virginie 00:56:46 10.78 00:05:34 19Ainées 1 467
777 4346 Chasseur Guillaume 00:56:46 10.78 00:05:34 419Séniors 466 LES FRELONS
778 4137 Plumier Frederic 00:56:47 10.78 00:05:34 146Vétérans 1 466 ZATAC LIEGE
779 2355 Marczewski Kévin 00:56:49 10.77 00:05:34 420Séniors 465
780 4718 Destexhe Quentin 00:56:49 10.77 00:05:34 421Séniors 464
781 2354 Longueville Nathan 00:56:51 10.77 00:05:34 422Séniors 463
782 4427 Scholberg Juliette 00:56:51 10.77 00:05:34 45Dames 463 LES FRELONS
783 4067 Vaessen Alain 00:56:51 10.77 00:05:34 147Vétérans 1 462 LA JOULIE TINLOTOISE
784 668 Anzalone Salvatore 00:56:52 10.76 00:05:35 148Vétérans 1 461 Province de Liège
785 4169 Rome Thierry 00:56:53 10.76 00:05:35 149Vétérans 1 461 JCPMF VERLAINE
786 1849 Sawenne Jief 00:56:54 10.76 00:05:35 150Vétérans 1 460
787 4589 Nellis Nicolas 00:56:56 10.75 00:05:35 423Séniors 459 CANIDES
788 4764 Smets Eric 00:56:59 10.74 00:05:35 151Vétérans 1 459 PAT S FOLLES
789 1230 Grégoire Charlotte 00:56:59 10.74 00:05:35 46Dames 458
790 1805 Vanstechelman Quentin 00:56:59 10.74 00:05:35 424Séniors 457
791 1586 Curto Laurent 00:57:00 10.74 00:05:35 425Séniors 456
792 727 Vandensavel Albert 00:57:04 10.72 00:05:36 21Vétérans 3 456 Province de Liège
793 728 Vandensavel Manon 00:57:04 10.72 00:05:36 47Dames 455 Province de Liège
794 4117 Rombaut Vincent 00:57:05 10.72 00:05:36 152Vétérans 1 454 RUNNIN GREZ
795 4499 Comito Vincent 00:57:07 10.71 00:05:36 426Séniors 454 US Liège
796 2179 Bebeach Barli 00:57:09 10.71 00:05:36 153Vétérans 1 453 AWAKENING
797 4019 Graff Michel 00:57:09 10.71 00:05:36 22Vétérans 3 452
798 2135 Linodave Chamiel 00:57:09 10.71 00:05:36 154Vétérans 1 451 AWAKENING
799 4425 Bartocci Danilo 00:57:10 10.71 00:05:36 58Vétérans 2 451
800 1068 Joris Florence 00:57:10 10.71 00:05:36 48Dames 450 Saint-Louis Huy
801 4565 Krepski Pierre antoine 00:57:15 10.69 00:05:37 427Séniors 449
802 832 Fabre Loic 00:57:15 10.69 00:05:37 50Espoirs H 449 Sainte-Marie Huy
803 4423 Thomas David 00:57:15 10.69 00:05:37 428Séniors 448
804 4333 Quinet Stephane 00:57:16 10.69 00:05:37 155Vétérans 1 447
805 2160 Bellaire Gregory 00:57:17 10.68 00:05:37 429Séniors 447
806 4400 Salmon Sebastienn 00:57:20 10.67 00:05:37 430Séniors 446 JCPMF WANZE
807 4784 Baldo Fabian 00:57:21 10.67 00:05:37 156Vétérans 1 445
808 4645 Collin Manon 00:57:23 10.67 00:05:38 49Dames 444
809 4780 Istaz Jose 00:57:23 10.67 00:05:38 23Vétérans 3 444 RT BRAIVES
810 2261 Bourguet Pierre 00:57:24 10.66 00:05:38 59Vétérans 2 443 JCPMF HERON
811 4453 Desumpel desimpel Jean 00:57:24 10.66 00:05:38 51Espoirs H 442
812 4409 Douffet Renaud 00:57:26 10.66 00:05:38 431Séniors 442
813 4496 Cuyvers Cedric 00:57:31 10.64 00:05:38 432Séniors 441 JOG IN ATTITUDE
814 4470 Kuffer Stephane 00:57:31 10.64 00:05:38 433Séniors 440
815 4568 Hanussek Herve 00:57:32 10.64 00:05:38 434Séniors 440
816 4642 Saglime Giuseppe 00:57:33 10.63 00:05:39 435Séniors 439
817 4269 Pleinevaux Stephan 00:57:33 10.63 00:05:39 157Vétérans 1 438 JCPMF HERON
818 4114 Ruoso Gianni 00:57:33 10.63 00:05:39 158Vétérans 1 437
819 4732 Vanderhoost Aurore 00:57:34 10.63 00:05:39 50Dames 437
820 4588 Piret Benjamin 00:57:34 10.63 00:05:39 436Séniors 436
821 554 Matagne Roxane 00:57:38 10.62 00:05:39 51Dames 435 CILE
822 4056 Simonet Jean luc 00:57:38 10.62 00:05:39 24Vétérans 3 435 FOULEES DU PLAISIR
823 2609 Guns Patrick 00:57:40 10.61 00:05:39 60Vétérans 2 434 Huy je cours partout
824 58 Henry Marie jennifer 00:57:40 10.61 00:05:39 4Ainées 2 433 RDV RUN BEYNE
825 4532 Alonso merino Salvator 00:57:42 10.61 00:05:39 ? 0
826 1690 Vande vijver Morgane 00:57:43 10.6 00:05:40 52Dames 432
827 1932 Decroupette Laurent 00:57:47 10.59 00:05:40 437Séniors 432
828 2662 Weijenberg Vincent 00:57:47 10.59 00:05:40 159Vétérans 1 431
829 1092 Willem Fabrice 00:57:48 10.59 00:05:40 20Ainées 1 430
830 1776 Guermonprez Patrick 00:57:50 10.58 00:05:40 160Vétérans 1 430
831 2927 Lessage Pascal 00:57:50 10.58 00:05:40 161Vétérans 1 429 LES FRELONS
832 1486 Leonard Jean francois 00:57:51 10.58 00:05:40 438Séniors 428
833 2608 Louis Patrick 00:57:51 10.58 00:05:40 162Vétérans 1 428
834 4489 Lejeune Benoit 00:57:52 10.58 00:05:40 163Vétérans 1 427
835 4836 Derkenne Ch 00:57:52 10.58 00:05:40 164Vétérans 1 426
836 4374 Fossepre Catherine 00:57:52 10.58 00:05:40 53Dames 425
837 4449 Collard Cind 00:57:53 10.57 00:05:40 21Ainées 1 425
838 666 Amiable Hugo 00:57:53 10.57 00:05:40 ? 0 Province de Liège
839 1425 Baeyens Gilles 00:57:54 10.57 00:05:41 439Séniors 424
840 4600 Noleveaux Julien 00:57:56 10.56 00:05:41 440Séniors 423
841 2350 Vandeveld Manu 00:57:57 10.56 00:05:41 165Vétérans 1 423
842 4767 Cicirello Sabrina 00:57:57 10.56 00:05:41 54Dames 422 RDV RUN BEYNE
843 1200 Delva Dominique 00:57:58 10.56 00:05:41 61Vétérans 2 421
844 1926 Crahay Vinciane 00:57:59 10.55 00:05:41 55Dames 421 LES FRELONS
845 1242 Michaux Christian 00:57:59 10.55 00:05:41 25Vétérans 3 420 LES FRELONS
846 94 Ulrici Roland 00:58:01 10.55 00:05:41 62Vétérans 2 419
847 365 Wasson André 00:58:03 10.54 00:05:41 63Vétérans 2 418 JOG IN ATTITUDE
848 1054 Boschini Christophe 00:58:03 10.54 00:05:41 441Séniors 418 Saint-Louis Huy
849 1594 De la hoz Luka 00:58:04 10.54 00:05:42 52Espoirs H 417
850 4020 Mergeay Lionel 00:58:05 10.54 00:05:42 166Vétérans 1 416
851 4219 Modave Maxime 00:58:07 10.53 00:05:42 442Séniors 416
852 4495 Lejeune Thierry 00:58:08 10.53 00:05:42 64Vétérans 2 415
853 1261 Leclère Corentin 00:58:09 10.52 00:05:42 443Séniors 414
854 4531 Gonders Thierry 00:58:09 10.52 00:05:42 ? 0
855 2717 Ledent Corentin 00:58:10 10.52 00:05:42 444Séniors 414
856 1883 Charlier Stéphanie 00:58:13 10.51 00:05:42 5Ainées 2 413
857 4746 Janssen Maurice 00:58:14 10.51 00:05:43 65Vétérans 2 412 GEMMENICH
858 1958 Antson Vlady 00:58:15 10.51 00:05:43 53Espoirs H 411
859 1851 Deckmyn Sébastien 00:58:16 10.5 00:05:43 167Vétérans 1 411
860 4130 Gavaert Martin 00:58:18 10.5 00:05:43 445Séniors 410
861 2744 Magain Melissa 00:58:19 10.49 00:05:43 56Dames 409
862 1080 Van den bergh David 00:58:20 10.49 00:05:43 446Séniors 409 Saint-Louis Huy
863 1551 Feltrin Anick 00:58:22 10.49 00:05:43 6Ainées 2 408 RDV RUN BEYNE
864 4584 Lonneux Aurelie 00:58:22 10.49 00:05:43 57Dames 407 JCPMF VILLERS
865 1547 Bouvier Lara 00:58:24 10.48 00:05:44 58Dames 406
866 4029 Decatoire Christophe 00:58:26 10.47 00:05:44 447Séniors 406
867 4144 Le maire Patricia 00:58:28 10.47 00:05:44 7Ainées 2 405 VICO
868 722 Ragusa Massimo 00:58:29 10.46 00:05:44 448Séniors 404 Province de Liège
869 721 Polome Maxime 00:58:29 10.46 00:05:44 449Séniors 404 Province de Liège
870 4240 Ligot Anthony 00:58:29 10.46 00:05:44 450Séniors 403
871 4125 Maes Jochen 00:58:30 10.46 00:05:44 451Séniors 402
872 823 Baguette Cyril 00:58:31 10.46 00:05:44 ? 0 Sainte-Marie Huy
873 2184 Fois Laetitia 00:58:32 10.46 00:05:44 22Ainées 1 402
874 1972 Halleux Isabelle 00:58:32 10.46 00:05:44 23Ainées 1 401 JCPMF WANZE
875 2830 Rouxhet Vincent 00:58:33 10.45 00:05:44 168Vétérans 1 400 vinrouxh.be
876 2093 Rouxhet Antoine 00:58:33 10.45 00:05:44 54Espoirs H 399 ABBAYE DE FLONE
877 2801 Ouras Nadir 00:58:33 10.45 00:05:44 452Séniors 399
878 2123 Dethier Celia 00:58:34 10.45 00:05:45 59Dames 398
879 2122 Moureau Caroline 00:58:35 10.45 00:05:45 24Ainées 1 397
880 4174 Sohy Michel 00:58:35 10.45 00:05:45 169Vétérans 1 397
881 1707 Parent Nicolas 00:58:36 10.44 00:05:45 453Séniors 396 JCPMF WANZE
882 1464 Charlier Matthieu 00:58:39 10.43 00:05:45 454Séniors 395 LES JOBS
883 4030 Tixhon Jeremie 00:58:40 10.43 00:05:45 455Séniors 395 LES JOBS
884 2170 Javaux Sébastien 00:58:40 10.43 00:05:45 456Séniors 394 The priests
885 4467 Boxus Catherine 00:58:40 10.43 00:05:45 60Dames 393
886 1498 De wilde Julien 00:58:41 10.43 00:05:45 457Séniors 392
887 2128 Gerard Christophe 00:58:41 10.43 00:05:45 458Séniors 392 G4R
888 1499 Morimont Emmanuel 00:58:41 10.43 00:05:45 459Séniors 391
889 4142 Thomas Antoine 00:58:41 10.43 00:05:45 460Séniors 390
890 1898 Hougardy Steve 00:58:42 10.43 00:05:45 461Séniors 390
891 4786 Pirard Margot 00:58:46 10.41 00:05:46 61Dames 389
892 4708 Manne Laura 00:58:47 10.41 00:05:46 4Espoirs D 388 15MH
893 4785 Loeckx Vincent 00:58:48 10.41 00:05:46 462Séniors 387
894 4300 Ryska Laurence 00:58:51 10.4 00:05:46 62Dames 387
895 2686 Dethier Andy 00:58:51 10.4 00:05:46 463Séniors 386
896 2725 Walthery Damien 00:58:54 10.39 00:05:46 464Séniors 385
897 1477 Renette Jasmine 00:58:54 10.39 00:05:46 63Dames 385
898 4185 Pairon Christelle 00:58:57 10.38 00:05:47 64Dames 384
899 1756 Fleron Pascal 00:58:57 10.38 00:05:47 170Vétérans 1 383
900 4796 De toffol Joachim 00:58:58 10.38 00:05:47 465Séniors 383
901 1670 Daenen Arnaud 00:59:00 10.37 00:05:47 466Séniors 382
902 2117 Leitenberger Boris 00:59:01 10.37 00:05:47 467Séniors 381
903 4717 Schreiber Bernard 00:59:01 10.37 00:05:47 171Vétérans 1 380
904 1744 Pailhe Olivier 00:59:02 10.37 00:05:47 468Séniors 380
905 4309 Panier Guillaume 00:59:02 10.37 00:05:47 55Espoirs H 379
906 4676 Falla Guillaume 00:59:03 10.36 00:05:47 469Séniors 378 LES CARIBOU GRILLES
907 828 De cock Chloé 00:59:04 10.36 00:05:47 5Espoirs D 378 Sainte-Marie Huy
908 1293 Delchambre Vincent 00:59:04 10.36 00:05:47 172Vétérans 1 377
909 4582 Lefebvre Didier 00:59:04 10.36 00:05:47 470Séniors 376
910 4124 Cerri Simona 00:59:04 10.36 00:05:47 471Séniors 376
911 4493 Absil Christophe 00:59:05 10.36 00:05:48 173Vétérans 1 375
912 1591 Dumont Louise 00:59:06 10.36 00:05:48 65Dames 374
913 4141 Piette Simon 00:59:06 10.36 00:05:48 472Séniors 373
914 4534 Melchior Fabrice 00:59:06 10.36 00:05:48 473Séniors 373
915 4766 Pirard Emma 00:59:07 10.35 00:05:48 66Dames 372
916 4068 Paquet David 00:59:08 10.35 00:05:48 174Vétérans 1 371
917 4619 Darimont Marie anne 00:59:08 10.35 00:05:48 25Ainées 1 371 JCPMF ANGLEUR
918 4586 Fievez Lisianne 00:59:09 10.35 00:05:48 67Dames 370 LES EOLES
919 716 Nollet Michel 00:59:09 10.35 00:05:48 66Vétérans 2 369 Province de Liège
920 4263 Lusi Romano 00:59:09 10.35 00:05:48 175Vétérans 1 368
921 4455 Dacome Pascal 00:59:13 10.33 00:05:48 474Séniors 368
922 4640 Sternon Jonathan 00:59:14 10.33 00:05:48 475Séniors 367
923 1777 Françus Pierre 00:59:14 10.33 00:05:48 476Séniors 366
924 4210 Thomas Jean marie 00:59:14 10.33 00:05:48 67Vétérans 2 366 VICO MARCHIN
925 4013 Graff Delphine 00:59:15 10.33 00:05:49 68Dames 365
926 4436 Kazmierczak Christina 00:59:15 10.33 00:05:49 69Dames 364
927 855 Vanolande Eliott 00:59:18 10.32 00:05:49 56Espoirs H 364 Sainte-Marie Huy
928 4289 Bonvissuto Enzo 00:59:18 10.32 00:05:49 477Séniors 363 MCP
929 4526 Gogolato Samuel 00:59:18 10.32 00:05:49 478Séniors 362
930 1402 Nols Frederic 00:59:19 10.32 00:05:49 479Séniors 361 JCPMF HERON
931 4829 Matagne Benoit 00:59:22 10.31 00:05:49 176Vétérans 1 361 BOUBIET TEAM
932 4599 Angelicchio Guiseppe 00:59:24 10.3 00:05:49 480Séniors 360
933 2566 Michel Nadège 00:59:24 10.3 00:05:49 70Dames 359
934 4012 Fontaine Elia 00:59:24 10.3 00:05:49 ? 0 HUY BASKET
935 2100 Bastin Hélène 00:59:24 10.3 00:05:49 57Espoirs H 359 Union Huy basket
936 1610 Bertrand Marie 00:59:24 10.3 00:05:49 71Dames 358 UNION HUY BASKET
937 4442 Willemart Benoit 00:59:25 10.3 00:05:50 481Séniors 357
938 4005 Frison Malorie 00:59:28 10.29 00:05:50 72Dames 357 FOULEES DU PLAISIR
939 1688 Moise Patrick 00:59:28 10.29 00:05:50 68Vétérans 2 356 RC NAMUR
940 4287 Rorive Emma 00:59:30 10.29 00:05:50 6Espoirs D 355
941 1809 Wattiez Raphaelle 00:59:31 10.28 00:05:50 8Ainées 2 354 OCAN
942 1394 Henrot Florence 00:59:32 10.28 00:05:50 73Dames 354
943 4388 Gonthier Louis 00:59:32 10.28 00:05:50 58Espoirs H 353
944 4352 Decroes Simon 00:59:33 10.28 00:05:50 59Espoirs H 352
945 4474 Lamborelle Francois 00:59:34 10.27 00:05:50 482Séniors 352 FOULEES DU PLAISIR
946 4462 Dewart Samuel 00:59:35 10.27 00:05:50 60Espoirs H 351
947 4483 Pirotte Julien 00:59:35 10.27 00:05:50 483Séniors 350
948 1437 Gauthy Matthieu 00:59:36 10.27 00:05:51 484Séniors 350
949 2177 Medveckyj Kim 00:59:37 10.27 00:05:51 485Séniors 349
950 2745 Sermeus Caroline 00:59:38 10.26 00:05:51 26Ainées 1 348
951 4463 Lambotte Clement 00:59:39 10.26 00:05:51 486Séniors 347
952 1278 Herman David 00:59:39 10.26 00:05:51 177Vétérans 1 347
953 4149 Sohy Fabrice 00:59:42 10.25 00:05:51 178Vétérans 1 346
954 540 Strasek Laura 00:59:48 10.23 00:05:52 74Dames 345 Body Attack Wanze
955 4160 Louwettte Marie celine 00:59:50 10.23 00:05:52 9Ainées 2 345
956 4159 Lange Jean lou 00:59:51 10.23 00:05:52 69Vétérans 2 344
957 4027 Delvaux Thierry 00:59:53 10.22 00:05:52 179Vétérans 1 343
958 4128 4128 N.n. 00:59:58 10.21 00:05:53 ? 0
959 4528 Hanze Sarah 01:00:01 10.2 00:05:53 75Dames 342
960 1504 Pogorzelski Julian 01:00:01 10.2 00:05:53 487Séniors 342
961 4500 Willem Romuald 01:00:01 10.2 00:05:53 488Séniors 341
962 4705 Bourguignon Pierre 01:00:02 10.19 00:05:53 70Vétérans 2 340
963 1788 Pirard Philippe 01:00:04 10.19 00:05:53 71Vétérans 2 340
964 1205 Thys Caroline 01:00:06 10.18 00:05:54 27Ainées 1 339 running team condroz
965 1568 Lefort Agnes 01:00:06 10.18 00:05:54 76Dames 338
966 4773 Jacobs Veronique 01:00:07 10.18 00:05:54 28Ainées 1 338
967 4772 Thomas Alexandre 01:00:08 10.18 00:05:54 489Séniors 337
968 4590 De poepe Alexandre 01:00:08 10.18 00:05:54 490Séniors 336 ENJOY
969 4668 Moor Matthieu 01:00:09 10.17 00:05:54 491Séniors 335
970 681 Calicetto Mélodie 01:00:09 10.17 00:05:54 77Dames 335 Province de Liège
971 2924 Damuseau Matthieu 01:00:11 10.17 00:05:54 492Séniors 334
972 4307 Wyns Alain 01:00:11 10.17 00:05:54 72Vétérans 2 333 FOULEES DU PLAISIR
973 4731 Romanelli Quentin 01:00:12 10.17 00:05:54 493Séniors 333
974 4730 Romanelli Paolo 01:00:12 10.17 00:05:54 73Vétérans 2 332 SEW NO SEN ANDENNE
975 1808 Ramet Johan 01:00:13 10.16 00:05:54 494Séniors 331 JCPMF HUY
976 4533 Bormans Cathy 01:00:15 10.16 00:05:54 29Ainées 1 331
977 4410 Dormal Amelie 01:00:16 10.15 00:05:55 78Dames 330
978 1195 Ravet Justine 01:00:16 10.15 00:05:55 79Dames 329
979 4206 Neerinck Genevieve 01:00:17 10.15 00:05:55 30Ainées 1 328 JCPMF HERON
980 562 Weis Selina 01:00:18 10.15 00:05:55 ? 0 CILE
981 550 Didderen Huguette 01:00:18 10.15 00:05:55 31Ainées 1 328 CILE
982 1194 Dor Camille 01:00:19 10.15 00:05:55 80Dames 327
983 4830 Charlier Louis 01:00:21 10.14 00:05:55 61Espoirs H 326
984 4186 Levaux Julien 01:00:22 10.14 00:05:55 495Séniors 326
985 1844 Schroyen Sandra 01:00:23 10.14 00:05:55 81Dames 325 Jogging academy
986 2733 Hautphenne Eric 01:00:24 10.13 00:05:55 10Ainées 2 324 JCPMF HERON
987 4294 Inama Cedric 01:00:24 10.13 00:05:55 496Séniors 323
988 837 Helas Romain 01:00:26 10.13 00:05:55 62Espoirs H 323 Sainte-Marie Huy
989 1656 Schmitz Maxime 01:00:28 10.12 00:05:56 497Séniors 322
990 1543 Charlotiaux Anne 01:00:28 10.12 00:05:56 32Ainées 1 321 JCPMF WANZE
991 4686 Bertrand Francois 01:00:29 10.12 00:05:56 498Séniors 321 Club Mémé
992 4040 Arvould Lucien 01:00:30 10.12 00:05:56 180Vétérans 1 320
993 4387 Gigant Harry 01:00:30 10.12 00:05:56 499Séniors 319
994 4637 Paquot Martine 01:00:31 10.11 00:05:56 11Ainées 2 319
995 4152 Kron Christopher 01:00:32 10.11 00:05:56 500Séniors 318
996 2212 Baltus Michael 01:00:32 10.11 00:05:56 501Séniors 317
997 2197 Lekir Marie 01:00:33 10.11 00:05:56 82Dames 316
998 1970 El asri Yasmina 01:00:34 10.1 00:05:56 33Ainées 1 316 JCPMF WANZE
999 2167 Czerniak Fabrice 01:00:34 10.1 00:05:56 502Séniors 315
1000 4034 Renard Noel 01:00:36 10.1 00:05:56 74Vétérans 2 314
1001 1209 Suarez-fernandez Cathy 01:00:37 10.1 00:05:57 34Ainées 1 314 JCPMF WANZE
1002 4535 Fantin Mathies 01:00:37 10.1 00:05:57 ? 0
1003 4684 Mouhanna Stephanie 01:00:38 10.09 00:05:57 83Dames 313 CLUB MEME
1004 2650 Demelenne Tom 01:00:38 10.09 00:05:57 503Séniors 312
1005 1512 Debart Julien 01:00:39 10.09 00:05:57 504Séniors 312
1006 4038 Rocour Sandrine 01:00:40 10.09 00:05:57 35Ainées 1 311 HUY ATHLETIC CLUB
1007 2271 Grasseels Alexandre 01:00:40 10.09 00:05:57 505Séniors 310
1008 4573 Luisetto Moira 01:00:43 10.08 00:05:57 84Dames 309
1009 712 Musiaux Christophe 01:00:44 10.08 00:05:57 506Séniors 309 Province de Liège
1010 4377 Morrhaye Gabriel 01:00:45 10.07 00:05:57 507Séniors 308
1011 4115 Dimperio Manu 01:00:49 10.06 00:05:58 508Séniors 307 TEAM CHEVRE
1012 4340 Herze Marc 01:00:52 10.05 00:05:58 509Séniors 307
1013 4504 Florkin Frederic 01:00:54 10.05 00:05:58 75Vétérans 2 306
1014 539 Montjoie Cédric 01:00:56 10.04 00:05:58 510Séniors 305 Body Attack Wanze
1015 1179 Lefevre Benoit 01:00:56 10.04 00:05:58 511Séniors 305
1016 4711 Thirion Lyse 01:00:57 10.04 00:05:59 85Dames 304 BATY RUNNERS
1017 1368 Detine Erwan 01:00:59 10.04 00:05:59 63Espoirs H 303
1018 2825 Calande Thomas 01:01:00 10.03 00:05:59 512Séniors 302 MAGPIE RUNNING HUY
1019 2134 Beaupain David 01:01:03 10.02 00:05:59 181Vétérans 1 302
1020 2102 Del giudice Angela 01:01:03 10.02 00:05:59 86Dames 301 JCPMF Antheit
1021 2201 Gerard Marie 01:01:03 10.02 00:05:59 87Dames 300 OCAN
1022 2180 Laruelle Jeremy 01:01:06 10.02 00:05:59 513Séniors 300
1023 4025 Barni Julien 01:01:07 10.01 00:05:60 182Vétérans 1 299
1024 2556 Leclercq Jean-marc 01:01:08 10.01 00:05:60 76Vétérans 2 298
1025 2997 Janiak Martine 01:01:09 10.01 00:05:60 88Dames 297
1026 1458 Besschops Adélaïde 01:01:10 10.01 00:05:60 89Dames 297
1027 4541 Abrassart Benoit 01:01:11 10 00:05:60 183Vétérans 1 296
1028 1303 Waregne Denis 01:01:12 10 00:06:00 184Vétérans 1 295 LES EOLES
1029 4033 Ndeze Eric 01:01:14 9.99 00:06:00 514Séniors 295
1030 4313 Vranken Frederic 01:01:15 9.99 00:06:00 185Vétérans 1 294
1031 4111 Marquet Donatienne 01:01:16 9.99 00:06:00 36Ainées 1 293 LES FRELONS
1032 4685 Collinge Audrey 01:01:16 9.99 00:06:00 90Dames 293 Club Meme
1033 1222 Baumans Céline 01:01:16 9.99 00:06:00 91Dames 292
1034 4383 Porrelli Rina 01:01:17 9.99 00:06:00 12Ainées 2 291 LES FRELONS
1035 4338 Keschi Fred 01:01:20 9.98 00:06:01 186Vétérans 1 290
1036 2993 Martini Anne-sophie 01:01:22 9.97 00:06:01 92Dames 290
1037 4692 Franchimont Patricia 01:01:23 9.97 00:06:01 37Ainées 1 289
1038 4693 Russo Joseph 01:01:23 9.97 00:06:01 187Vétérans 1 288
1039 2242 Gustin Sabrina 01:01:24 9.97 00:06:01 93Dames 288 LES EOLES
1040 2094 Taens Guillaume 01:01:25 9.96 00:06:01 515Séniors 287 ABBAYE DE FLONE
1041 10 Adam Franck 01:01:26 9.96 00:06:01 188Vétérans 1 286 Hst
1042 4018 Legros Corine 01:01:27 9.96 00:06:01 38Ainées 1 286 ATHLETIC
1043 4224 Thomas Francis 01:01:29 9.95 00:06:02 26Vétérans 3 285
1044 4759 Lambinon Cedric 01:01:30 9.95 00:06:02 516Séniors 284
1045 544 Belluz Stéphane 01:01:34 9.94 00:06:02 517Séniors 283 CILE
1046 4009 Benaets Arnaud 01:01:34 9.94 00:06:02 518Séniors 283
1047 1252 Gillard Claire 01:01:34 9.94 00:06:02 94Dames 282
1048 2994 Wallemacq Caroline 01:01:36 9.94 00:06:02 39Ainées 1 281 LES FRELONS
1049 2729 Erler Dimitri 01:01:39 9.93 00:06:03 77Vétérans 2 281
1050 1198 Camerin Thomas 01:01:39 9.93 00:06:03 519Séniors 280
1051 1560 Maquet Laurent 01:01:39 9.93 00:06:03 520Séniors 279
1052 1208 Duque blanco Catherine 01:01:40 9.92 00:06:03 95Dames 278
1053 1483 Gruosso Jessica 01:01:42 9.92 00:06:03 96Dames 278 SER ATHL
1054 1650 Jadoul Mathilde 01:01:42 9.92 00:06:03 97Dames 277 CESPAP
1055 1453 Hauzeur Dominique 01:01:42 9.92 00:06:03 98Dames 276 jcpmf Modave
1056 1927 Pesesse Virginie 01:01:43 9.92 00:06:03 99Dames 276
1057 4736 Forconi Patrick 01:01:44 9.91 00:06:03 78Vétérans 2 275
1058 4630 Timmermans Sylvie 01:01:44 9.91 00:06:03 100Dames 274 ZATAC
1059 4456 Loncar Freddy 01:01:47 9.91 00:06:03 189Vétérans 1 274 LOS FRELANS
1060 4457 Gamassin Lucin 01:01:48 9.9 00:06:04 13Ainées 2 273 LES FRELONS
1061 4564 Dessart Francois 01:01:52 9.89 00:06:04 521Séniors 272
1062 1922 Verlaine Margaux 01:01:53 9.89 00:06:04 101Dames 271
1063 2287 Vangenechten Sabine 01:01:53 9.89 00:06:04 102Dames 271
1064 2607 Greco Pietro 01:01:54 9.89 00:06:04 190Vétérans 1 270
1065 1867 Henrard Stephane 01:01:55 9.88 00:06:04 79Vétérans 2 269
1066 2527 Dupagne Frédéric 01:01:58 9.88 00:06:05 191Vétérans 1 269
1067 556 Partoune Fabian 01:01:59 9.87 00:06:05 522Séniors 268 CILE
1068 4230 Beguin Stephane 01:01:59 9.87 00:06:05 192Vétérans 1 267
1069 4621 Dewitte Christine 01:02:01 9.87 00:06:05 40Ainées 1 267
1070 1176 Pirotte Benjamin 01:02:03 9.86 00:06:05 523Séniors 266
1071 4560 Albala Jean francois 01:02:06 9.86 00:06:05 524Séniors 265
1072 4255 Marbaise Celine 01:02:07 9.85 00:06:05 103Dames 264
1073 2599 Mottet Marie 01:02:10 9.84 00:06:06 41Ainées 1 264 FCHA
1074 4623 Cloux Anais 01:02:11 9.84 00:06:06 104Dames 263
1075 4399 Soenen Jose 01:02:15 9.83 00:06:06 27Vétérans 3 262
1076 1173 Magoche Mathieu 01:02:16 9.83 00:06:06 525Séniors 262
1077 1868 Delvaux Simon 01:02:16 9.83 00:06:06 526Séniors 261
1078 39 Derycke Brithany 01:02:17 9.83 00:06:06 7Espoirs D 260 la licorne
1079 2504 Lejeune Clothilde 01:02:17 9.83 00:06:06 8Espoirs D 259
1080 92 Rulmont Claude 01:02:18 9.82 00:06:06 80Vétérans 2 259 la licorne
1081 4001 Binot Bernard 01:02:21 9.82 00:06:07 81Vétérans 2 258
1082 2515 Montulet Laurane 01:02:22 9.81 00:06:07 9Espoirs D 257 Sainte-Marie Huy
1083 2663 Willemart Nathalie 01:02:23 9.81 00:06:07 42Ainées 1 257 FCHA
1084 4578 Rousselet Renaud 01:02:26 9.8 00:06:07 527Séniors 256
1085 838 Hennau Pauline 01:02:26 9.8 00:06:07 10Espoirs D 255 Sainte-Marie Huy
1086 1364 Hardy Eric 01:02:27 9.8 00:06:07 528Séniors 255
1087 831 Dubois Marilyn 01:02:27 9.8 00:06:07 105Dames 254 Sainte-Marie Huy
1088 2765 Ross Julien 01:02:29 9.79 00:06:08 529Séniors 253
1089 2661 Reinders Virginie 01:02:31 9.79 00:06:08 106Dames 252
1090 1204 Minette Caroline 01:02:31 9.79 00:06:08 107Dames 252
1091 2815 Ruelle Stephanie 01:02:32 9.79 00:06:08 108Dames 251
1092 4587 Gasquard Catherine 01:02:36 9.78 00:06:08 109Dames 250
1093 2304 Perez perez Diego 01:02:49 9.74 00:06:010 ? 0
1094 4046 Castellano Jose 01:02:50 9.74 00:06:010 193Vétérans 1 250
1095 2238 Rubens Raphaël 01:02:53 9.73 00:06:010 530Séniors 249
1096 4824 Ancion Jean pascal 01:02:54 9.73 00:06:10 82Vétérans 2 248
1097 62 Patout Arnaud 01:02:56 9.72 00:06:10 531Séniors 248
1098 2996 Wallemacq Hugues 01:03:00 9.71 00:06:11 532Séniors 247
1099 4039 Roebben Marie france 01:03:00 9.71 00:06:11 43Ainées 1 246 HUY ATHLETIC CLUB
1100 4297 Effhimiadis Georgia 01:03:00 9.71 00:06:11 110Dames 245
1101 4279 Vanhecke Vincent 01:03:00 9.71 00:06:11 194Vétérans 1 245
1102 4302 Lemaitre Adrien 01:03:01 9.71 00:06:11 533Séniors 244
1103 4007 Ligot Nicolas 01:03:02 9.71 00:06:11 534Séniors 243
1104 2178 Laby Justine 01:03:02 9.71 00:06:11 111Dames 243
1105 2251 Torfs Stéphane 01:03:03 9.71 00:06:11 535Séniors 242 R.E.S. Templiers-Nandrin
1106 698 Grzegorczyk Laurent 01:03:04 9.7 00:06:11 195Vétérans 1 241 Province de Liège
1107 1911 Dabompre Nat b j 01:03:05 9.7 00:06:11 14Ainées 2 241 LES FRELONS
1108 1957 Lejeune Viviane 01:03:05 9.7 00:06:11 44Ainées 1 240
1109 1459 Besschops Héloïse 01:03:06 9.7 00:06:11 112Dames 239
1110 1544 Pailhe Laetitia 01:03:06 9.7 00:06:11 113Dames 238 Apér O Run
1111 4051 Gornik Manuel 01:03:07 9.7 00:06:11 536Séniors 238
1112 4191 Fagnoul Tristan 01:03:09 9.69 00:06:11 537Séniors 237
1113 4176 Heuse Quentin 01:03:10 9.69 00:06:12 538Séniors 236
1114 4190 Florio Elisa 01:03:11 9.69 00:06:12 114Dames 236
1115 4507 Mortele Rudy 01:03:12 9.68 00:06:12 83Vétérans 2 235 SERUNNERS
1116 1060 Darot Stéphane 01:03:12 9.68 00:06:12 539Séniors 234 Saint-Louis Huy
1117 2276 Lambert Vinciane 01:03:14 9.68 00:06:12 45Ainées 1 233
1118 2165 Ikuze Laura 01:03:15 9.68 00:06:12 115Dames 233
1119 1141 Chardon Ariane 01:03:21 9.66 00:06:13 46Ainées 1 232 OCAN
1120 2258 Panepinto Tommas 01:03:23 9.66 00:06:13 540Séniors 231
1121 4709 Frere Maxime 01:03:25 9.65 00:06:13 541Séniors 231
1122 4304 Paulus Lauralie 01:03:29 9.64 00:06:13 116Dames 230
1123 4355 Mokeddem Kadour 01:03:29 9.64 00:06:13 84Vétérans 2 229 Huy
1124 2282 Ketelslegers Julien 01:03:30 9.64 00:06:14 542Séniors 229
1125 4266 Warenghien Iowan 01:03:30 9.64 00:06:14 543Séniors 228
1126 2578 Fontaine Lucie 01:03:31 9.64 00:06:14 117Dames 227 Je cours pour ma forme
1127 4703 Deneffe Damien 01:03:33 9.63 00:06:14 544Séniors 226
1128 4158 Hans Allisson 01:03:33 9.63 00:06:14 118Dames 226 WAC
1129 4147 Piette Alain 01:03:33 9.63 00:06:14 85Vétérans 2 225
1130 2163 Labalue Hélène 01:03:34 9.63 00:06:14 47Ainées 1 224
1131 2188 Legrand Lionel 01:03:35 9.63 00:06:14 545Séniors 224
1132 4832 Vanvinckenroye Celine 01:03:36 9.62 00:06:14 119Dames 223
1133 2803 Dattoli Nathalie 01:03:37 9.62 00:06:14 48Ainées 1 222
1134 1369 Lacasse Esméralda 01:03:38 9.62 00:06:14 49Ainées 1 222 JCPMF 10+
1135 4075 Delvaux Philippe 01:03:38 9.62 00:06:14 86Vétérans 2 221
1136 4473 Frontain Louis 01:03:40 9.61 00:06:15 64Espoirs H 220
1137 41 Detrixhe Christophe 01:03:40 9.61 00:06:15 196Vétérans 1 219 WAC
1138 4322 Boyer Sonia 01:03:41 9.61 00:06:15 15Ainées 2 219 WAC
1139 4132 Francois Carole 01:03:44 9.6 00:06:15 120Dames 218
1140 2816 Sahin Onsel 01:03:49 9.59 00:06:15 546Séniors 217
1141 1306 Gilsoul Denis 01:03:51 9.58 00:06:16 547Séniors 217
1142 2505 Gillot Romain 01:03:52 9.58 00:06:16 65Espoirs H 216
1143 4351 Darimont Eric 01:03:53 9.58 00:06:16 197Vétérans 1 215 EPO FRIEND S TEAM
1144 4523 Preudhomme Thibault 01:03:55 9.57 00:06:16 548Séniors 214 LES FRELONS
1145 665 Altomare Xavier 01:03:56 9.57 00:06:16 549Séniors 214 Province de Liège
1146 551 Lacasse Martine 01:03:57 9.57 00:06:16 50Ainées 1 213 CILE
1147 1336 Emans Geoffrey 01:03:59 9.56 00:06:16 550Séniors 212 Cynergie
1148 4501 Bertrand May 01:03:59 9.56 00:06:16 ? 0
1149 4218 Leroy Pierre yves 01:04:00 9.56 00:06:16 551Séniors 212
1150 1567 Fouillien Alice 01:04:00 9.56 00:06:16 121Dames 211
1151 2211 Romain Frédéric 01:04:01 9.56 00:06:17 552Séniors 210
1152 4081 Maguin Patricia 01:04:03 9.56 00:06:17 16Ainées 2 210 JOG IN ATTITUDE
1153 4060 Gaspard Dorian 01:04:08 9.54 00:06:17 553Séniors 209
1154 1950 Henrotin Vincent 01:04:08 9.54 00:06:17 554Séniors 208
1155 4652 Masson Corentin 01:04:14 9.53 00:06:18 66Espoirs H 207
1156 1674 De carvalho Michel 01:04:17 9.52 00:06:18 198Vétérans 1 207
1157 4540 Tasquin Guillaume 01:04:20 9.51 00:06:18 555Séniors 206
1158 2283 Goffin Laurent 01:04:20 9.51 00:06:18 556Séniors 205
1159 2950 Daniel navarro Francisco 01:04:21 9.51 00:06:19 199Vétérans 1 205
1160 1203 Jaumotte Caroline 01:04:21 9.51 00:06:19 17Ainées 2 204 Running club namur
1161 1310 Maréchal Raphaël 01:04:25 9.5 00:06:19 200Vétérans 1 203
1162 4026 Babe Michel 01:04:27 9.5 00:06:19 87Vétérans 2 203 LES RUTHEUX
1163 4791 Mahy Romain 01:04:29 9.49 00:06:19 557Séniors 202
1164 377 Chagnon Marie-claude 01:04:35 9.48 00:06:20 18Ainées 2 201 RDV RUN BEYNE
1165 4402 Fagan Christelle 01:04:35 9.48 00:06:20 51Ainées 1 200
1166 4664 Schiepers Isabelle 01:04:38 9.47 00:06:20 52Ainées 1 200
1167 1876 Gilles Igot 01:04:39 9.47 00:06:20 558Séniors 199
1168 4431 Titelbach Alain 01:04:40 9.46 00:06:20 201Vétérans 1 198 TITELFAMILY
1169 4432 Titelbach Ling ling 01:04:40 9.46 00:06:20 53Ainées 1 198 TITELFAMILY
1170 4632 Cote Virginie 01:04:44 9.45 00:06:21 122Dames 197
1171 4633 Lothe Benoit 01:04:45 9.45 00:06:21 559Séniors 196
1172 689 Delle vedove Aline 01:04:45 9.45 00:06:21 123Dames 195 Province de Liège
1173 4472 Frontain Frederick 01:04:46 9.45 00:06:21 202Vétérans 1 195
1174 842 Lheureux Apolline 01:04:49 9.44 00:06:21 11Espoirs D 194 Sainte-Marie Huy
1175 2106 Mawait Anthony 01:04:49 9.44 00:06:21 560Séniors 193
1176 4669 Carly Stephanie 01:04:50 9.44 00:06:21 ? 0
1177 4433 Deleuze Fanny 01:04:51 9.44 00:06:21 54Ainées 1 193 LES FRELONS
1178 1775 Damry Philippe 01:04:51 9.44 00:06:21 88Vétérans 2 192
1179 1760 Bove Pasquale 01:04:53 9.43 00:06:22 203Vétérans 1 191
1180 2721 Van eycken Cédric 01:04:54 9.43 00:06:22 561Séniors 191
1181 1471 Leglise Isaline 01:04:54 9.43 00:06:22 12Espoirs D 190 Fun gym
1182 1478 Greco Jacques 01:04:54 9.43 00:06:22 89Vétérans 2 189 JCPMF WANZE
1183 1913 Rouschop Tatiana 01:04:56 9.43 00:06:22 13Espoirs D 188 Fun gym
1184 4775 Vanoverberghe Marie 01:04:58 9.42 00:06:22 124Dames 188
1185 1070 Liesens Vinciane 01:05:05 9.4 00:06:23 125Dames 187 Saint-Louis Huy
1186 4000 Henrion Jonathan 01:05:11 9.39 00:06:23 562Séniors 186
1187 2724 Uliana Damien 01:05:15 9.38 00:06:24 563Séniors 186
1188 2741 Flament Florence 01:05:17 9.37 00:06:24 126Dames 185
1189 52 Parotte Simone 01:05:17 9.37 00:06:24 2Ainées 3 184
1190 2345 Docquier Emile 01:05:18 9.37 00:06:24 ? 0
1191 4299 Jacques Lionel 01:05:18 9.37 00:06:24 564Séniors 184
1192 4298 Pirson Julie 01:05:19 9.37 00:06:24 127Dames 183
1193 706 Leclerc Christiane 01:05:21 9.36 00:06:24 3Ainées 3 182 Province de Liège
1194 849 Pierre Olivier 01:05:23 9.36 00:06:25 204Vétérans 1 181 Sainte-Marie Huy
1195 558 Ramackers Christophe 01:05:26 9.35 00:06:25 205Vétérans 1 181 CILE
1196 1511 Laurent Julien 01:05:26 9.35 00:06:25 565Séniors 180
1197 2812 Quevrin Augustin 01:05:26 9.35 00:06:25 566Séniors 179
1198 2168 Bonazza Isabelle 01:05:36 9.33 00:06:26 55Ainées 1 179 HUY ATHLETIC CLUB
1199 1841 Coosemans Sandra 01:05:36 9.33 00:06:26 128Dames 178 FOULEES DU PLAISIR
1200 4211 Florkin Marc 01:05:40 9.32 00:06:26 ? 0
1201 4042 Lecoq Catherine 01:05:40 9.32 00:06:26 56Ainées 1 177
1202 4484 Beziat Melanie 01:05:47 9.3 00:06:27 129Dames 177
1203 2336 Vos Claire 01:05:48 9.3 00:06:27 19Ainées 2 176
1204 2559 Stasse Jean-pierre 01:05:49 9.3 00:06:27 90Vétérans 2 175
1205 1249 Bollinne Christophe 01:05:49 9.3 00:06:27 567Séniors 174
1206 4651 Marneffe Philippe 01:05:49 9.3 00:06:27 28Vétérans 3 174
1207 1361 Camerin Daniel 01:05:50 9.3 00:06:27 91Vétérans 2 173
1208 2558 Borgs José 01:05:51 9.29 00:06:27 206Vétérans 1 172 JCPMF FLEMALLE
1209 4542 Pirson Marceline 01:05:51 9.29 00:06:27 130Dames 172
1210 260 Danis Jean 01:05:55 9.28 00:06:28 92Vétérans 2 171
1211 4262 Freson Coralie 01:05:58 9.28 00:06:28 131Dames 170
1212 2274 Veneziano Carine 01:05:58 9.28 00:06:28 57Ainées 1 169 SER ATHL
1213 2249 Nolet Sophie 01:05:59 9.28 00:06:28 132Dames 169
1214 2700 Reinders Elisabeth 01:05:59 9.28 00:06:28 133Dames 168
1215 4688 Lissoir Valentine 01:06:03 9.27 00:06:29 134Dames 167 BATY RUNNERS
1216 2991 Debra Laurent 01:06:03 9.27 00:06:29 207Vétérans 1 167
1217 4657 Barbier Pierre paul 01:06:06 9.26 00:06:29 568Séniors 166
1218 4354 Mokeddem Sunny 01:06:09 9.25 00:06:29 67Espoirs H 165 Huy
1219 4054 Hoyoux Cristel 01:06:09 9.25 00:06:29 58Ainées 1 165
1220 548 Burghartz Jérôme 01:06:12 9.24 00:06:29 569Séniors 164 CILE
1221 4656 Bollinne Laurent 01:06:16 9.24 00:06:30 208Vétérans 1 163
1222 713 Nearno Tanina 01:06:19 9.23 00:06:30 59Ainées 1 162 Province de Liège
1223 1909 Truscia Vincent 01:06:20 9.23 00:06:30 60Ainées 1 162
1224 4241 Bosson Margaux 01:06:21 9.22 00:06:30 135Dames 161
1225 4363 Defrance Anne-shadow 01:06:23 9.22 00:06:30 136Dames 160
1226 4704 Durant Romain 01:06:31 9.2 00:06:31 570Séniors 160
1227 2175 Giminne Jordan 01:06:31 9.2 00:06:31 571Séniors 159
1228 1884 Giminne Stephane 01:06:32 9.2 00:06:31 572Séniors 158
1229 2949 Vandeberg Aurelie 01:06:34 9.19 00:06:32 137Dames 158 Je cours pour ma forme
1230 1747 Oury Valerie 01:06:34 9.19 00:06:32 138Dames 157 Huy je cours partout
1231 1678 Michotte Caroline 01:06:35 9.19 00:06:32 139Dames 156
1232 1282 Ricci David 01:06:36 9.19 00:06:32 93Vétérans 2 155
1233 1783 Bolen Pierre-yves 01:06:37 9.19 00:06:32 209Vétérans 1 155
1234 4592 Charlier Louis 01:06:40 9.18 00:06:32 573Séniors 154 CHARLITOS
1235 4386 Werner Charles 01:06:41 9.18 00:06:32 574Séniors 153
1236 4324 Fagnoul Louise 01:06:42 9.18 00:06:32 140Dames 153
1237 2269 Gielen Xavier 01:06:51 9.15 00:06:33 575Séniors 152
1238 217 Ruwet Nathalie 01:06:53 9.15 00:06:33 20Ainées 2 151 RDV RUN BEYNE
1239 2628 Renson Audrey 01:06:54 9.15 00:06:34 141Dames 150
1240 4827 Rivez Guillaume 01:06:54 9.15 00:06:34 576Séniors 150
1241 93 Ulrici Jacky 01:06:55 9.15 00:06:34 29Vétérans 3 149 mpw
1242 4661 Beck Julie 01:06:55 9.15 00:06:34 142Dames 148 RDV RUN BEYNE
1243 4086 Lheureux Vincent 01:06:55 9.15 00:06:34 94Vétérans 2 148
1244 4129 Melon Christophe 01:07:03 9.13 00:06:34 210Vétérans 1 147 RUN4FUN
1245 4778 Talbot Stephanie 01:07:08 9.12 00:06:35 143Dames 146
1246 4616 Jaquinet Nikki 01:07:08 9.12 00:06:35 577Séniors 146 QUINTUOR DE SLINS
1247 2195 Dohet Marie 01:07:09 9.11 00:06:35 144Dames 145
1248 2275 Caterina Claudia 01:07:10 9.11 00:06:35 61Ainées 1 144
1249 4031 Thomas Laura 01:07:12 9.11 00:06:35 145Dames 143 ABBAYE DE FLONE
1250 4503 Domken Alexis 01:07:12 9.11 00:06:35 ? 0
1251 4150 Nisse Jessica 01:07:15 9.1 00:06:36 146Dames 143
1252 2742 Bonge Steve 01:07:15 9.1 00:06:36 578Séniors 142
1253 1897 Collin Steve 01:07:16 9.1 00:06:36 579Séniors 141
1254 1924 Verlaine Thomas 01:07:17 9.1 00:06:36 580Séniors 141
1255 4008 Woznial Martin 01:07:18 9.09 00:06:36 581Séniors 140
1256 1311 Devroye Anne 01:07:19 9.09 00:06:36 21Ainées 2 139
1257 1553 Nicolas Laureline 01:07:19 9.09 00:06:36 147Dames 139
1258 1150 Atienza martinez Ludovic 01:07:25 9.08 00:06:37 582Séniors 138
1259 1151 Willain Jean-marc 01:07:25 9.08 00:06:37 95Vétérans 2 137
1260 695 Gabriel Nathan 01:07:25 9.08 00:06:37 ? 0 Province de Liège
1261 537 Busin Estelle 01:07:27 9.07 00:06:37 62Ainées 1 136 Body Attack Wanze
1262 4414 Frison Eric 01:07:32 9.06 00:06:37 211Vétérans 1 136
1263 4411 Matagne Virginie 01:07:32 9.06 00:06:37 63Ainées 1 135
1264 4062 Docquier Rudi 01:07:35 9.06 00:06:38 96Vétérans 2 134 SPORT ET FUN HELECINE
1265 2225 Craninx Patrick 01:07:40 9.04 00:06:38 97Vétérans 2 134 WAC
1266 2268 Rome Patrick 01:07:43 9.04 00:06:38 212Vétérans 1 133
1267 1971 Vanden bussche Yvette 01:07:46 9.03 00:06:39 22Ainées 2 132 LES FRELONS
1268 2511 Noiset Alain 01:07:46 9.03 00:06:39 30Vétérans 3 132 LES FRELONS
1269 2190 Henrard Vincent 01:07:48 9.03 00:06:39 98Vétérans 2 131
1270 710 Makedonsky Kira 01:07:48 9.03 00:06:39 64Ainées 1 130 Province de Liège
1271 703 Jeziorny Caroline 01:07:49 9.02 00:06:39 148Dames 129 Province de Liège
1272 1371 Robinet Eva 01:07:49 9.02 00:06:39 149Dames 129 FOULEES DU PLAISIR
1273 1065 Goffart Marianne 01:07:50 9.02 00:06:39 23Ainées 2 128 Saint-Louis Huy
1274 705 Korthoudt Claudine 01:07:50 9.02 00:06:39 4Ainées 3 127 Province de Liège
1275 4275 Vigneront Anne-sophie 01:07:51 9.02 00:06:39 150Dames 127
1276 1479 Ducamp Jean-pol 01:07:52 9.02 00:06:39 31Vétérans 3 126
1277 4330 Perez Stephanie 01:07:56 9.01 00:06:40 151Dames 125
1278 4367 Crupi Luc 01:07:59 9 00:06:40 99Vétérans 2 124
1279 4603 Nagy Kathalin 01:08:02 9 00:06:40 152Dames 124
1280 50 Van laar Christine 01:08:03 8.99 00:06:40 24Ainées 2 123
1281 4612 Oenee Stephen 01:08:05 8.99 00:06:40 583Séniors 122
1282 4610 Ligot Miguel 01:08:07 8.98 00:06:41 213Vétérans 1 122
1283 1391 Fekete Caroline 01:08:08 8.98 00:06:41 25Ainées 2 121
1284 4444 Dodeigne Angelique 01:08:11 8.98 00:06:41 153Dames 120 JCPF MODAVE
1285 4510 Thomas Amelie 01:08:11 8.98 00:06:41 154Dames 120 RUN ESSENCE
1286 2347 Docquier Vivian 01:08:12 8.97 00:06:41 214Vétérans 1 119
1287 4724 Lejeune Bastien 01:08:28 8.94 00:06:43 584Séniors 118 OCAN
1288 4722 Lousberg Virgine 01:08:28 8.94 00:06:43 155Dames 117 OCAN
1289 1933 Bleret Valérie 01:08:31 8.93 00:06:43 65Ainées 1 117 JCPMF HERON
1290 4706 Watelek Valerie 01:08:40 8.91 00:06:44 156Dames 116 BLACKBUCKS
1291 825 Champon Quentin 01:08:41 8.91 00:06:44 68Espoirs H 115 Sainte-Marie Huy
1292 4707 Zakaria Julia 01:08:42 8.91 00:06:44 14Espoirs D 115 ISMH
1293 4320 Pirard Thierry 01:08:45 8.9 00:06:44 215Vétérans 1 114
1294 2120 Lhoest Caroline 01:08:45 8.9 00:06:44 157Dames 113 JCPMF HUY
1295 4291 Deltour Gregory 01:08:53 8.88 00:06:45 585Séniors 113 TEAM CHEVRE
1296 1116 Lecomte Alice 01:08:54 8.88 00:06:45 158Dames 112
1297 4175 Lorent Cecile 01:08:58 8.87 00:06:46 66Ainées 1 111 JCPMF HERON
1298 4745 Chauveheid Laura 01:09:02 8.87 00:06:46 159Dames 110
1299 4099 Vanvinckenroye Francoise 01:09:03 8.86 00:06:46 26Ainées 2 110
1300 4793 Jacquet Alyssa 01:09:07 8.85 00:06:47 160Dames 109
1301 4768 Servais Thiphaine 01:09:07 8.85 00:06:47 161Dames 108
1302 4618 Castenetto Kim 01:09:08 8.85 00:06:47 162Dames 108 EXTREM FITNESS
1303 2756 Lempereur Guillaume 01:09:08 8.85 00:06:47 586Séniors 107
1304 4475 Verhoest Joachim 01:09:10 8.85 00:06:47 587Séniors 106
1305 1410 Durello Geneviève 01:09:11 8.85 00:06:47 163Dames 105 Jogging Academy
1306 4074 Degueldre Cecile 01:09:14 8.84 00:06:47 67Ainées 1 105
1307 4440 Kartkemer Virginie 01:09:14 8.84 00:06:47 68Ainées 1 104
1308 4091 Dossin Cecile 01:09:17 8.83 00:06:48 164Dames 103
1309 1449 Amand Gwennaëlle 01:09:25 8.82 00:06:48 165Dames 103
1310 4566 Longree Delphine 01:09:35 8.8 00:06:49 166Dames 102
1311 1258 Meulder Caroline 01:09:35 8.8 00:06:49 167Dames 101 Huy je cours partout
1312 552 Lambert Chloé 01:09:37 8.79 00:06:50 168Dames 101 CILE
1313 560 Smeets Julie 01:09:38 8.79 00:06:50 169Dames 100 CILE
1314 4443 Degand Jean phi 01:09:50 8.76 00:06:51 100Vétérans 2 99 JCPF MODAVE
1315 4617 Ruyssen Loupiotte 01:09:51 8.76 00:06:51 170Dames 98 QUINTUOR DE SLINS
1316 1452 Winant Julien 01:09:57 8.75 00:06:51 588Séniors 98
1317 2590 Loza Maite 01:09:57 8.75 00:06:51 69Ainées 1 97 JCPMF FLEMALLE
1318 4723 Lejeune Pauline 01:09:58 8.75 00:06:52 171Dames 96 OCAN
1319 4380 Lizin Patrick 01:10:05 8.73 00:06:52 101Vétérans 2 96
1320 2335 Jeanne Christian 01:10:07 8.73 00:06:52 102Vétérans 2 95
1321 1803 Lecaillié Quentin 01:10:11 8.72 00:06:53 589Séniors 94
1322 1765 Capelle Perrine 01:10:11 8.72 00:06:53 172Dames 94